Time,TemperatureF,DewpointF,PressureIn,WindDirection,WindDirectionDegrees,WindSpeedMPH,WindSpeedGustMPH,Humidity,HourlyPrecipIn,Conditions,Clouds,dailyrainin,SoftwareType,DateUTC
2013-01-22 00:00:00,6.8,-32.3,30.12,West,270,3.0,12.0,14,0.00,,,0.00,meteohub,2013-01-22 05:00:00,
2013-01-22 00:01:00,6.8,-32.3,30.12,West,270,3.0,11.0,14,0.00,,,0.00,meteohub,2013-01-22 05:01:00,
2013-01-22 00:04:00,6.8,-32.3,30.12,West,270,3.0,11.0,14,0.00,,,0.00,meteohub,2013-01-22 05:04:00,
2013-01-22 00:05:00,6.8,-32.3,30.12,West,270,3.0,8.0,14,0.00,,,0.00,meteohub,2013-01-22 05:05:00,
2013-01-22 00:06:00,6.8,-32.3,30.12,West,270,3.0,8.0,14,0.00,,,0.00,meteohub,2013-01-22 05:06:00,
2013-01-22 00:10:00,6.6,-31.2,30.12,West,270,13.0,13.0,15,0.00,,,0.00,meteohub,2013-01-22 05:10:00,
2013-01-22 00:11:00,6.6,-31.2,30.12,West,270,13.0,13.0,15,0.00,,,0.00,meteohub,2013-01-22 05:11:00,
2013-01-22 00:16:00,6.8,-31.0,30.12,WSW,248,10.0,13.0,15,0.00,,,0.00,meteohub,2013-01-22 05:16:00,
2013-01-22 00:17:00,6.8,-31.0,30.12,South,180,4.0,13.0,15,0.00,,,0.00,meteohub,2013-01-22 05:17:00,
2013-01-22 00:21:00,6.8,-31.0,30.12,South,180,3.0,13.0,15,0.00,,,0.00,meteohub,2013-01-22 05:21:00,
2013-01-22 00:22:00,6.8,-31.0,30.12,WSW,248,1.0,13.0,15,0.00,,,0.00,meteohub,2013-01-22 05:22:00,
2013-01-22 00:26:00,6.6,-30.1,30.12,NW,315,6.0,13.0,16,0.00,,,0.00,meteohub,2013-01-22 05:26:00,
2013-01-22 00:27:00,6.6,-30.1,30.12,NW,315,9.0,13.0,16,0.00,,,0.00,meteohub,2013-01-22 05:27:00,
2013-01-22 00:28:00,6.6,-30.1,30.12,West,270,5.0,13.0,16,0.00,,,0.00,meteohub,2013-01-22 05:28:00,
2013-01-22 00:31:00,6.4,-30.3,30.11,West,270,4.0,10.0,16,0.00,,,0.00,meteohub,2013-01-22 05:31:00,
2013-01-22 00:32:00,6.4,-30.3,30.12,NW,315,4.0,10.0,16,0.00,,,0.00,meteohub,2013-01-22 05:32:00,
2013-01-22 00:33:00,6.4,-30.3,30.11,WSW,248,3.0,10.0,16,0.00,,,0.00,meteohub,2013-01-22 05:33:00,
2013-01-22 00:37:00,6.4,-29.0,30.12,West,270,5.0,9.0,17,0.00,,,0.00,meteohub,2013-01-22 05:37:00,
2013-01-22 00:38:00,6.4,-29.0,30.12,West,270,5.0,9.0,17,0.00,,,0.00,meteohub,2013-01-22 05:38:00,
2013-01-22 00:43:00,6.6,-29.0,30.11,NW,315,11.0,13.0,17,0.00,,,0.00,meteohub,2013-01-22 05:43:00,
2013-01-22 00:44:00,6.6,-29.0,30.11,NW,315,11.0,13.0,17,0.00,,,0.00,meteohub,2013-01-22 05:44:00,
2013-01-22 00:48:00,6.8,-28.8,30.11,West,270,9.0,13.0,17,0.00,,,0.00,meteohub,2013-01-22 05:48:00,
2013-01-22 00:49:00,6.8,-28.8,30.11,West,270,9.0,13.0,17,0.00,,,0.00,meteohub,2013-01-22 05:49:00,
2013-01-22 00:51:00,7.0,-28.7,30.11,West,270,5.0,14.0,17,0.00,,,0.00,meteohub,2013-01-22 05:51:00,
2013-01-22 00:54:00,7.0,-28.7,30.11,NW,315,6.0,14.0,17,0.00,,,0.00,meteohub,2013-01-22 05:54:00,
2013-01-22 00:55:00,7.0,-28.7,30.11,West,270,11.0,14.0,17,0.00,,,0.00,meteohub,2013-01-22 05:55:00,
2013-01-22 00:56:00,7.0,-28.7,30.11,NW,315,7.0,15.0,17,0.00,,,0.00,meteohub,2013-01-22 05:56:00,
2013-01-22 00:59:00,7.0,-27.6,30.12,West,270,11.0,15.0,18,0.00,,,0.00,meteohub,2013-01-22 05:59:00,
2013-01-22 01:00:00,7.0,-27.6,30.11,West,270,5.0,15.0,18,0.00,,,0.00,meteohub,2013-01-22 06:00:00,
2013-01-22 01:01:00,7.0,-27.6,30.11,West,270,5.0,15.0,18,0.00,,,0.00,meteohub,2013-01-22 06:01:00,
2013-01-22 01:04:00,7.0,-27.6,30.11,West,270,5.0,15.0,18,0.00,,,0.00,meteohub,2013-01-22 06:04:00,
2013-01-22 01:06:00,7.0,-27.6,30.11,West,270,5.0,15.0,18,0.00,,,0.00,meteohub,2013-01-22 06:06:00,
2013-01-22 01:07:00,7.2,-26.5,30.11,WNW,293,11.0,15.0,19,0.00,,,0.00,meteohub,2013-01-22 06:07:00,
2013-01-22 01:11:00,7.2,-26.5,30.11,NW,315,14.0,14.0,19,0.00,,,0.00,meteohub,2013-01-22 06:11:00,
2013-01-22 01:13:00,7.2,-26.5,30.10,NW,315,16.0,16.0,19,0.00,,,0.00,meteohub,2013-01-22 06:13:00,
2013-01-22 01:16:00,7.0,-26.7,30.11,West,270,5.0,16.0,19,0.00,,,0.00,meteohub,2013-01-22 06:16:00,
2013-01-22 01:17:00,7.0,-26.7,30.11,West,270,5.0,16.0,19,0.00,,,0.00,meteohub,2013-01-22 06:17:00,
2013-01-22 01:18:00,7.0,-26.7,30.11,West,270,9.0,16.0,19,0.00,,,0.00,meteohub,2013-01-22 06:18:00,
2013-01-22 01:19:00,7.0,-26.7,30.12,NW,315,11.0,16.0,19,0.00,,,0.00,meteohub,2013-01-22 06:19:00,
2013-01-22 01:22:00,7.0,-25.6,30.11,WSW,248,10.0,16.0,20,0.00,,,0.00,meteohub,2013-01-22 06:22:00,
2013-01-22 01:24:00,7.0,-25.6,30.11,WSW,248,9.0,16.0,20,0.00,,,0.00,meteohub,2013-01-22 06:24:00,
2013-01-22 01:25:00,7.0,-25.6,30.12,West,270,4.0,16.0,20,0.00,,,0.00,meteohub,2013-01-22 06:25:00,
2013-01-22 01:27:00,7.0,-24.7,30.11,West,270,8.0,18.0,21,0.00,,,0.00,meteohub,2013-01-22 06:27:00,
2013-01-22 01:28:00,7.0,-24.7,30.12,West,270,6.0,18.0,21,0.00,,,0.00,meteohub,2013-01-22 06:28:00,
2013-01-22 01:30:00,7.0,-24.7,30.12,NW,315,5.0,18.0,21,0.00,,,0.00,meteohub,2013-01-22 06:30:00,
2013-01-22 01:32:00,7.0,-23.8,30.12,West,270,4.0,18.0,22,0.00,,,0.00,meteohub,2013-01-22 06:32:00,
2013-01-22 01:34:00,7.0,-23.8,30.12,West,270,3.0,18.0,22,0.00,,,0.00,meteohub,2013-01-22 06:34:00,
2013-01-22 01:35:00,7.0,-23.8,30.12,WSW,248,13.0,18.0,22,0.00,,,0.00,meteohub,2013-01-22 06:35:00,
2013-01-22 01:36:00,7.0,-23.8,30.12,NW,315,9.0,18.0,22,0.00,,,0.00,meteohub,2013-01-22 06:36:00,
2013-01-22 01:38:00,7.2,-22.9,30.12,West,270,12.0,18.0,23,0.00,,,0.00,meteohub,2013-01-22 06:38:00,
2013-01-22 01:39:00,7.2,-22.9,30.12,West,270,12.0,18.0,23,0.00,,,0.00,meteohub,2013-01-22 06:39:00,
2013-01-22 01:40:00,7.0,-23.1,30.12,NW,315,8.0,13.0,23,0.00,,,0.00,meteohub,2013-01-22 06:40:00,
2013-01-22 01:41:00,7.2,-22.9,30.12,WSW,248,5.0,13.0,23,0.00,,,0.00,meteohub,2013-01-22 06:41:00,
2013-01-22 01:43:00,7.2,-22.9,30.12,West,270,3.0,13.0,23,0.00,,,0.00,meteohub,2013-01-22 06:43:00,
2013-01-22 01:45:00,7.2,-22.0,30.12,WSW,248,5.0,13.0,24,0.00,,,0.00,meteohub,2013-01-22 06:45:00,
2013-01-22 01:46:00,7.2,-22.0,30.12,NE,45,3.0,13.0,24,0.00,,,0.00,meteohub,2013-01-22 06:46:00,
2013-01-22 01:50:00,7.2,-21.3,30.12,WSW,248,6.0,13.0,25,0.00,,,0.00,meteohub,2013-01-22 06:50:00,
2013-01-22 01:51:00,7.2,-21.3,30.12,West,270,4.0,13.0,25,0.00,,,0.00,meteohub,2013-01-22 06:51:00,
2013-01-22 01:52:00,7.2,-21.3,30.12,WSW,248,6.0,13.0,25,0.00,,,0.00,meteohub,2013-01-22 06:52:00,
2013-01-22 01:56:00,7.2,-20.6,30.12,West,270,4.0,9.0,26,0.00,,,0.00,meteohub,2013-01-22 06:56:00,
2013-01-22 01:57:00,7.2,-20.6,30.12,South,180,4.0,9.0,26,0.00,,,0.00,meteohub,2013-01-22 06:57:00,
2013-01-22 01:58:00,7.2,-20.6,30.12,South,180,4.0,9.0,26,0.00,,,0.00,meteohub,2013-01-22 06:58:00,
2013-01-22 02:02:00,7.0,-20.7,30.13,WSW,248,11.0,11.0,26,0.00,,,0.00,meteohub,2013-01-22 07:02:00,
2013-01-22 02:03:00,7.0,-20.7,30.12,WSW,248,11.0,11.0,26,0.00,,,0.00,meteohub,2013-01-22 07:03:00,
2013-01-22 02:07:00,7.0,-20.7,30.13,WSW,248,11.0,12.0,26,0.00,,,0.00,meteohub,2013-01-22 07:07:00,
2013-01-22 02:08:00,7.0,-20.7,30.12,WSW,248,11.0,12.0,26,0.00,,,0.00,meteohub,2013-01-22 07:08:00,
2013-01-22 02:09:00,7.0,-20.7,30.12,WSW,248,11.0,12.0,26,0.00,,,0.00,meteohub,2013-01-22 07:09:00,
2013-01-22 02:12:00,6.8,-18.0,30.13,WSW,248,14.0,14.0,30,0.00,,,0.00,meteohub,2013-01-22 07:12:00,
2013-01-22 02:13:00,6.8,-18.0,30.12,South,180,12.0,12.0,30,0.00,,,0.00,meteohub,2013-01-22 07:13:00,
2013-01-22 02:14:00,6.8,-18.0,30.12,South,180,12.0,12.0,30,0.00,,,0.00,meteohub,2013-01-22 07:14:00,
2013-01-22 02:17:00,6.6,-18.9,30.13,East,90,3.0,17.0,29,0.00,,,0.00,meteohub,2013-01-22 07:17:00,
2013-01-22 02:19:00,6.6,-18.9,30.13,West,270,8.0,17.0,29,0.00,,,0.00,meteohub,2013-01-22 07:19:00,
2013-01-22 02:23:00,6.6,-18.2,30.13,West,270,11.0,17.0,30,0.00,,,0.00,meteohub,2013-01-22 07:23:00,
2013-01-22 02:24:00,6.4,-18.4,30.14,West,270,8.0,17.0,30,0.00,,,0.00,meteohub,2013-01-22 07:24:00,
2013-01-22 02:25:00,6.4,-18.4,30.14,NE,45,7.0,17.0,30,0.00,,,0.00,meteohub,2013-01-22 07:25:00,
2013-01-22 02:29:00,6.3,-18.6,30.14,WSW,248,8.0,14.0,30,0.00,,,0.00,meteohub,2013-01-22 07:29:00,
2013-01-22 02:30:00,6.3,-17.9,30.14,North,0,7.0,14.0,31,0.00,,,0.00,meteohub,2013-01-22 07:30:00,
2013-01-22 02:31:00,6.3,-17.9,30.14,WSW,248,6.0,15.0,31,0.00,,,0.00,meteohub,2013-01-22 07:31:00,
2013-01-22 02:34:00,6.3,-17.3,30.14,NW,315,5.0,15.0,32,0.00,,,0.00,meteohub,2013-01-22 07:34:00,
2013-01-22 02:35:00,6.3,-17.3,30.13,NW,315,5.0,15.0,32,0.00,,,0.00,meteohub,2013-01-22 07:35:00,
2013-01-22 02:36:00,6.3,-17.3,30.14,WSW,248,7.0,15.0,32,0.00,,,0.00,meteohub,2013-01-22 07:36:00,
2013-01-22 02:39:00,6.3,-16.8,30.14,NW,315,6.0,15.0,33,0.00,,,0.00,meteohub,2013-01-22 07:39:00,
2013-01-22 02:40:00,6.3,-16.8,30.14,WSW,248,10.0,15.0,33,0.00,,,0.00,meteohub,2013-01-22 07:40:00,
2013-01-22 02:42:00,6.1,-16.8,30.13,North,0,6.0,15.0,33,0.00,,,0.00,meteohub,2013-01-22 07:42:00,
2013-01-22 02:45:00,6.1,-16.2,30.14,West,270,2.0,15.0,34,0.00,,,0.00,meteohub,2013-01-22 07:45:00,
2013-01-22 02:47:00,6.1,-16.2,30.14,West,270,12.0,15.0,34,0.00,,,0.00,meteohub,2013-01-22 07:47:00,
2013-01-22 02:50:00,5.9,-16.4,30.14,NW,315,8.0,15.0,34,0.00,,,0.00,meteohub,2013-01-22 07:50:00,
2013-01-22 02:52:00,5.9,-16.4,30.14,West,270,9.0,15.0,34,0.00,,,0.00,meteohub,2013-01-22 07:52:00,
2013-01-22 02:55:00,5.9,-15.9,30.14,WSW,248,11.0,17.0,35,0.00,,,0.00,meteohub,2013-01-22 07:55:00,
2013-01-22 02:57:00,5.7,-16.1,30.14,SE,135,5.0,17.0,35,0.00,,,0.00,meteohub,2013-01-22 07:57:00,
2013-01-22 02:58:00,5.7,-16.1,30.14,NW,315,7.0,17.0,35,0.00,,,0.00,meteohub,2013-01-22 07:58:00,
2013-01-22 03:01:00,5.7,-16.1,30.14,NW,315,9.0,17.0,35,0.00,,,0.00,meteohub,2013-01-22 08:01:00,
2013-01-22 03:02:00,5.7,-16.1,30.14,West,270,13.0,17.0,35,0.00,,,0.00,meteohub,2013-01-22 08:02:00,
2013-01-22 03:03:00,5.7,-16.1,30.14,South,180,3.0,17.0,35,0.00,,,0.00,meteohub,2013-01-22 08:03:00,
2013-01-22 03:05:00,5.7,-16.1,30.14,WSW,248,10.0,17.0,35,0.00,,,0.00,meteohub,2013-01-22 08:05:00,
2013-01-22 03:07:00,5.7,-16.1,30.14,West,270,4.0,17.0,35,0.00,,,0.00,meteohub,2013-01-22 08:07:00,
2013-01-22 03:08:00,5.7,-16.1,30.14,NE,45,2.0,17.0,35,0.00,,,0.00,meteohub,2013-01-22 08:08:00,
2013-01-22 03:10:00,5.5,-16.2,30.14,WSW,248,8.0,17.0,35,0.00,,,0.00,meteohub,2013-01-22 08:10:00,
2013-01-22 03:12:00,5.5,-15.7,30.14,West,270,11.0,13.0,36,0.00,,,0.00,meteohub,2013-01-22 08:12:00,
2013-01-22 03:13:00,5.5,-15.7,30.14,WSW,248,8.0,13.0,36,0.00,,,0.00,meteohub,2013-01-22 08:13:00,
2013-01-22 03:14:00,5.5,-15.7,30.14,WSW,248,8.0,13.0,36,0.00,,,0.00,meteohub,2013-01-22 08:14:00,
2013-01-22 03:15:00,5.5,-15.7,30.15,NW,315,11.0,13.0,36,0.00,,,0.00,meteohub,2013-01-22 08:15:00,
2013-01-22 03:18:00,5.5,-15.7,30.15,West,270,14.0,14.0,36,0.00,,,0.00,meteohub,2013-01-22 08:18:00,
2013-01-22 03:19:00,5.4,-15.9,30.15,WSW,248,13.0,13.0,36,0.00,,,0.00,meteohub,2013-01-22 08:19:00,
2013-01-22 03:20:00,5.4,-15.9,30.14,West,270,4.0,14.0,36,0.00,,,0.00,meteohub,2013-01-22 08:20:00,
2013-01-22 03:21:00,5.4,-15.9,30.15,WSW,248,11.0,14.0,36,0.00,,,0.00,meteohub,2013-01-22 08:21:00,
2013-01-22 03:23:00,5.4,-15.9,30.15,WSW,248,5.0,14.0,36,0.00,,,0.00,meteohub,2013-01-22 08:23:00,
2013-01-22 03:25:00,5.4,-15.9,30.15,NW,315,8.0,14.0,36,0.00,,,0.00,meteohub,2013-01-22 08:25:00,
2013-01-22 03:26:00,5.4,-15.9,30.15,NW,315,8.0,14.0,36,0.00,,,0.00,meteohub,2013-01-22 08:26:00,
2013-01-22 03:28:00,5.4,-15.9,30.15,WSW,248,7.0,14.0,36,0.00,,,0.00,meteohub,2013-01-22 08:28:00,
2013-01-22 03:30:00,5.2,-15.9,30.15,West,270,5.0,14.0,36,0.00,,,0.00,meteohub,2013-01-22 08:30:00,
2013-01-22 03:31:00,5.2,-15.9,30.15,NW,315,4.0,14.0,36,0.00,,,0.00,meteohub,2013-01-22 08:31:00,
2013-01-22 03:32:00,5.2,-15.9,30.15,NW,315,5.0,14.0,36,0.00,,,0.00,meteohub,2013-01-22 08:32:00,
2013-01-22 03:33:00,5.2,-15.9,30.15,NW,315,12.0,14.0,36,0.00,,,0.00,meteohub,2013-01-22 08:33:00,
2013-01-22 03:36:00,5.0,-16.6,30.15,West,270,12.0,12.0,35,0.00,,,0.00,meteohub,2013-01-22 08:36:00,
2013-01-22 03:37:00,5.0,-16.6,30.15,South,180,5.0,12.0,35,0.00,,,0.00,meteohub,2013-01-22 08:37:00,
2013-01-22 03:39:00,4.8,-17.3,30.15,WSW,248,9.0,12.0,34,0.00,,,0.00,meteohub,2013-01-22 08:39:00,
2013-01-22 03:41:00,4.6,-18.2,30.14,West,270,18.0,18.0,33,0.00,,,0.00,meteohub,2013-01-22 08:41:00,
2013-01-22 03:42:00,4.6,-18.2,30.15,East,90,10.0,12.0,33,0.00,,,0.00,meteohub,2013-01-22 08:42:00,
2013-01-22 03:43:00,4.6,-18.2,30.15,East,90,10.0,12.0,33,0.00,,,0.00,meteohub,2013-01-22 08:43:00,
2013-01-22 03:44:00,4.6,-18.8,30.15,South,180,11.0,12.0,32,0.00,,,0.00,meteohub,2013-01-22 08:44:00,
2013-01-22 03:47:00,4.5,-20.2,30.15,NW,315,10.0,18.0,30,0.00,,,0.00,meteohub,2013-01-22 08:47:00,
2013-01-22 03:48:00,4.5,-20.7,30.15,NW,315,12.0,18.0,29,0.00,,,0.00,meteohub,2013-01-22 08:48:00,
2013-01-22 03:49:00,4.5,-20.7,30.15,NW,315,9.0,18.0,29,0.00,,,0.00,meteohub,2013-01-22 08:49:00,
2013-01-22 03:53:00,4.5,-22.2,30.15,West,270,11.0,18.0,27,0.00,,,0.00,meteohub,2013-01-22 08:53:00,
2013-01-22 03:55:00,4.5,-22.9,30.15,WSW,248,15.0,18.0,26,0.00,,,0.00,meteohub,2013-01-22 08:55:00,
2013-01-22 03:58:00,4.5,-23.6,30.15,NW,315,11.0,18.0,25,0.00,,,0.00,meteohub,2013-01-22 08:58:00,
2013-01-22 03:59:00,4.3,-24.5,30.15,West,270,8.0,18.0,24,0.00,,,0.00,meteohub,2013-01-22 08:59:00,
2013-01-22 04:02:00,4.5,-24.3,30.15,NW,315,5.0,15.0,24,0.00,,,0.00,meteohub,2013-01-22 09:02:00,
2013-01-22 04:03:00,4.5,-25.2,30.15,WSW,248,4.0,15.0,23,0.00,,,0.00,meteohub,2013-01-22 09:03:00,
2013-01-22 04:04:00,4.3,-25.4,30.15,NW,315,13.0,15.0,23,0.00,,,0.00,meteohub,2013-01-22 09:04:00,
2013-01-22 04:08:00,4.3,-26.1,30.15,NW,315,9.0,15.0,22,0.00,,,0.00,meteohub,2013-01-22 09:08:00,
2013-01-22 04:09:00,4.3,-26.1,30.15,NW,315,9.0,15.0,22,0.00,,,0.00,meteohub,2013-01-22 09:09:00,
2013-01-22 04:14:00,4.3,-27.0,30.15,WSW,248,5.0,15.0,21,0.00,,,0.00,meteohub,2013-01-22 09:14:00,
2013-01-22 04:15:00,4.5,-26.9,30.16,West,270,2.0,15.0,21,0.00,,,0.00,meteohub,2013-01-22 09:15:00,
2013-01-22 04:19:00,4.3,-27.0,30.16,North,0,12.0,15.0,21,0.00,,,0.00,meteohub,2013-01-22 09:19:00,
2013-01-22 04:20:00,4.3,-27.9,30.15,WSW,248,8.0,15.0,20,0.00,,,0.00,meteohub,2013-01-22 09:20:00,
2013-01-22 04:25:00,4.1,-29.0,30.16,NW,315,5.0,15.0,19,0.00,,,0.00,meteohub,2013-01-22 09:25:00,
2013-01-22 04:26:00,4.1,-29.0,30.16,South,180,11.0,17.0,19,0.00,,,0.00,meteohub,2013-01-22 09:26:00,
2013-01-22 04:30:00,4.1,-31.0,30.16,West,270,11.0,17.0,17,0.00,,,0.00,meteohub,2013-01-22 09:30:00,
2013-01-22 04:31:00,3.9,-31.2,30.16,NW,315,4.0,17.0,17,0.00,,,0.00,meteohub,2013-01-22 09:31:00,
2013-01-22 04:32:00,3.9,-31.2,30.16,West,270,7.0,17.0,17,0.00,,,0.00,meteohub,2013-01-22 09:32:00,
2013-01-22 04:36:00,3.9,-31.2,30.16,NW,315,17.0,17.0,17,0.00,,,0.00,meteohub,2013-01-22 09:36:00,
2013-01-22 04:37:00,3.9,-32.3,30.16,West,270,8.0,17.0,16,0.00,,,0.00,meteohub,2013-01-22 09:37:00,
2013-01-22 04:41:00,3.7,-32.4,30.16,NW,315,5.0,17.0,16,0.00,,,0.00,meteohub,2013-01-22 09:41:00,
2013-01-22 04:42:00,3.7,-32.4,30.16,NW,315,6.0,17.0,16,0.00,,,0.00,meteohub,2013-01-22 09:42:00,
2013-01-22 04:47:00,3.6,-31.5,30.16,West,270,8.0,17.0,17,0.00,,,0.00,meteohub,2013-01-22 09:47:00,
2013-01-22 04:48:00,3.6,-31.5,30.16,South,180,9.0,17.0,17,0.00,,,0.00,meteohub,2013-01-22 09:48:00,
2013-01-22 04:52:00,3.6,-32.6,30.16,West,270,4.0,17.0,16,0.00,,,0.00,meteohub,2013-01-22 09:52:00,
2013-01-22 04:53:00,3.6,-32.6,30.16,West,270,4.0,17.0,16,0.00,,,0.00,meteohub,2013-01-22 09:53:00,
2013-01-22 04:54:00,3.4,-32.8,30.17,West,270,4.0,17.0,16,0.00,,,0.00,meteohub,2013-01-22 09:54:00,
2013-01-22 04:57:00,3.4,-31.7,30.17,WNW,293,9.0,13.0,17,0.00,,,0.00,meteohub,2013-01-22 09:57:00,
2013-01-22 04:58:00,3.4,-31.7,30.16,West,270,13.0,13.0,17,0.00,,,0.00,meteohub,2013-01-22 09:58:00,
2013-01-22 04:59:00,3.4,-31.7,30.16,West,270,10.0,13.0,17,0.00,,,0.00,meteohub,2013-01-22 09:59:00,
2013-01-22 05:03:00,3.2,-33.0,30.16,NW,315,15.0,15.0,16,0.00,,,0.00,meteohub,2013-01-22 10:03:00,
2013-01-22 05:04:00,3.2,-33.0,30.16,NW,315,15.0,15.0,16,0.00,,,0.00,meteohub,2013-01-22 10:04:00,
2013-01-22 05:05:00,3.4,-32.8,30.17,East,90,14.0,14.0,16,0.00,,,0.00,meteohub,2013-01-22 10:05:00,
2013-01-22 05:09:00,3.4,-32.8,30.16,NW,315,5.0,15.0,16,0.00,,,0.00,meteohub,2013-01-22 10:09:00,
2013-01-22 05:10:00,3.4,-32.8,30.17,WSW,248,13.0,15.0,16,0.00,,,0.00,meteohub,2013-01-22 10:10:00,
2013-01-22 05:12:00,3.4,-32.8,30.16,WSW,248,19.0,19.0,16,0.00,,,0.00,meteohub,2013-01-22 10:12:00,
2013-01-22 05:15:00,3.4,-33.9,30.17,WSW,248,9.0,15.0,15,0.00,,,0.00,meteohub,2013-01-22 10:15:00,
2013-01-22 05:17:00,3.4,-32.8,30.17,West,270,5.0,19.0,16,0.00,,,0.00,meteohub,2013-01-22 10:17:00,
2013-01-22 05:20:00,3.4,-32.8,30.17,WSW,248,15.0,19.0,16,0.00,,,0.00,meteohub,2013-01-22 10:20:00,
2013-01-22 05:21:00,3.2,-33.0,30.17,WSW,248,3.0,19.0,16,0.00,,,0.00,meteohub,2013-01-22 10:21:00,
2013-01-22 05:22:00,3.2,-33.0,30.17,WSW,248,7.0,19.0,16,0.00,,,0.00,meteohub,2013-01-22 10:22:00,
2013-01-22 05:25:00,3.2,-33.0,30.17,West,270,3.0,19.0,16,0.00,,,0.00,meteohub,2013-01-22 10:25:00,
2013-01-22 05:27:00,3.2,-33.0,30.17,West,270,8.0,19.0,16,0.00,,,0.00,meteohub,2013-01-22 10:27:00,
2013-01-22 05:28:00,3.2,-33.0,30.17,WSW,248,7.0,19.0,16,0.00,,,0.00,meteohub,2013-01-22 10:28:00,
2013-01-22 05:30:00,3.2,-33.0,30.17,SE,135,6.0,19.0,16,0.00,,,0.00,meteohub,2013-01-22 10:30:00,
2013-01-22 05:32:00,3.2,-33.0,30.18,NW,315,5.0,15.0,16,0.00,,,0.00,meteohub,2013-01-22 10:32:00,
2013-01-22 05:33:00,3.2,-33.0,30.17,NW,315,12.0,15.0,16,0.00,,,0.00,meteohub,2013-01-22 10:33:00,
2013-01-22 05:34:00,3.4,-32.8,30.17,West,270,5.0,15.0,16,0.00,,,0.00,meteohub,2013-01-22 10:34:00,
2013-01-22 05:36:00,3.4,-32.8,30.17,West,270,10.0,15.0,16,0.00,,,0.00,meteohub,2013-01-22 10:36:00,
2013-01-22 05:37:00,3.4,-32.8,30.17,West,270,10.0,15.0,16,0.00,,,0.00,meteohub,2013-01-22 10:37:00,
2013-01-22 05:38:00,3.4,-32.8,30.17,NW,315,9.0,15.0,16,0.00,,,0.00,meteohub,2013-01-22 10:38:00,
2013-01-22 05:39:00,3.4,-33.9,30.17,WSW,248,3.0,15.0,15,0.00,,,0.00,meteohub,2013-01-22 10:39:00,
2013-01-22 05:42:00,3.4,-32.8,30.17,North,0,2.0,13.0,16,0.00,,,0.00,meteohub,2013-01-22 10:42:00,
2013-01-22 05:43:00,3.2,-33.0,30.17,WSW,248,3.0,13.0,16,0.00,,,0.00,meteohub,2013-01-22 10:43:00,
2013-01-22 05:44:00,3.2,-33.0,30.17,NW,315,11.0,13.0,16,0.00,,,0.00,meteohub,2013-01-22 10:44:00,
2013-01-22 05:47:00,3.2,-33.0,30.18,WSW,248,10.0,13.0,16,0.00,,,0.00,meteohub,2013-01-22 10:47:00,
2013-01-22 05:48:00,3.2,-33.0,30.18,West,270,7.0,13.0,16,0.00,,,0.00,meteohub,2013-01-22 10:48:00,
2013-01-22 05:49:00,3.2,-33.0,30.18,West,270,7.0,13.0,16,0.00,,,0.00,meteohub,2013-01-22 10:49:00,
2013-01-22 05:50:00,3.2,-33.0,30.18,WSW,248,9.0,13.0,16,0.00,,,0.00,meteohub,2013-01-22 10:50:00,
2013-01-22 05:53:00,3.2,-34.1,30.18,WSW,248,11.0,13.0,15,0.00,,,0.00,meteohub,2013-01-22 10:53:00,
2013-01-22 05:54:00,3.2,-34.1,30.18,NW,315,13.0,13.0,15,0.00,,,0.00,meteohub,2013-01-22 10:54:00,
2013-01-22 05:55:00,3.2,-34.1,30.19,WNW,293,7.0,15.0,15,0.00,,,0.00,meteohub,2013-01-22 10:55:00,
2013-01-22 05:58:00,3.0,-34.2,30.18,West,270,4.0,15.0,15,0.00,,,0.00,meteohub,2013-01-22 10:58:00,
2013-01-22 05:59:00,3.0,-34.2,30.19,WSW,248,3.0,15.0,15,0.00,,,0.00,meteohub,2013-01-22 10:59:00,
2013-01-22 06:01:00,3.0,-34.2,30.19,South,180,4.0,15.0,15,0.00,,,0.00,meteohub,2013-01-22 11:01:00,
2013-01-22 06:04:00,2.8,-34.4,30.19,NE,45,5.0,15.0,15,0.00,,,0.00,meteohub,2013-01-22 11:04:00,
2013-01-22 06:05:00,2.8,-34.4,30.19,West,270,9.0,15.0,15,0.00,,,0.00,meteohub,2013-01-22 11:05:00,
2013-01-22 06:06:00,2.8,-34.4,30.19,South,180,7.0,15.0,15,0.00,,,0.00,meteohub,2013-01-22 11:06:00,
2013-01-22 06:09:00,2.8,-33.2,30.19,WSW,248,4.0,15.0,16,0.00,,,0.00,meteohub,2013-01-22 11:09:00,
2013-01-22 06:10:00,2.8,-33.2,30.19,NW,315,4.0,15.0,16,0.00,,,0.00,meteohub,2013-01-22 11:10:00,
2013-01-22 06:11:00,2.8,-33.2,30.19,West,270,7.0,9.0,16,0.00,,,0.00,meteohub,2013-01-22 11:11:00,
2013-01-22 06:14:00,2.8,-34.4,30.19,WSW,248,6.0,9.0,15,0.00,,,0.00,meteohub,2013-01-22 11:14:00,
2013-01-22 06:15:00,2.8,-34.4,30.19,WSW,248,6.0,9.0,15,0.00,,,0.00,meteohub,2013-01-22 11:15:00,
2013-01-22 06:17:00,2.8,-34.4,30.19,WSW,248,3.0,13.0,15,0.00,,,0.00,meteohub,2013-01-22 11:17:00,
2013-01-22 06:20:00,2.8,-34.4,30.19,West,270,10.0,13.0,15,0.00,,,0.00,meteohub,2013-01-22 11:20:00,
2013-01-22 06:21:00,2.8,-34.4,30.20,West,270,7.0,13.0,15,0.00,,,0.00,meteohub,2013-01-22 11:21:00,
2013-01-22 06:22:00,2.7,-34.4,30.19,WSW,248,6.0,13.0,15,0.00,,,0.00,meteohub,2013-01-22 11:22:00,
2013-01-22 06:25:00,2.7,-34.4,30.20,West,270,4.0,13.0,15,0.00,,,0.00,meteohub,2013-01-22 11:25:00,
2013-01-22 06:26:00,2.7,-34.4,30.20,West,270,4.0,13.0,15,0.00,,,0.00,meteohub,2013-01-22 11:26:00,
2013-01-22 06:27:00,2.7,-34.4,30.20,WSW,248,9.0,13.0,15,0.00,,,0.00,meteohub,2013-01-22 11:27:00,
2013-01-22 06:28:00,2.7,-34.4,30.20,WSW,248,9.0,13.0,15,0.00,,,0.00,meteohub,2013-01-22 11:28:00,
2013-01-22 06:30:00,2.7,-34.4,30.20,NW,315,7.0,10.0,15,0.00,,,0.00,meteohub,2013-01-22 11:30:00,
2013-01-22 06:32:00,2.7,-34.4,30.20,South,180,11.0,11.0,15,0.00,,,0.00,meteohub,2013-01-22 11:32:00,
2013-01-22 06:33:00,2.7,-34.4,30.20,NW,315,11.0,11.0,15,0.00,,,0.00,meteohub,2013-01-22 11:33:00,
2013-01-22 06:34:00,2.7,-34.4,30.20,WSW,248,7.0,10.0,15,0.00,,,0.00,meteohub,2013-01-22 11:34:00,
2013-01-22 06:35:00,2.7,-34.4,30.20,WSW,248,14.0,14.0,15,0.00,,,0.00,meteohub,2013-01-22 11:35:00,
2013-01-22 06:38:00,2.7,-35.7,30.20,NW,315,12.0,12.0,14,0.00,,,0.00,meteohub,2013-01-22 11:38:00,
2013-01-22 06:40:00,2.7,-35.7,30.20,WSW,248,7.0,11.0,14,0.00,,,0.00,meteohub,2013-01-22 11:40:00,
2013-01-22 06:44:00,2.7,-34.4,30.20,North,0,4.0,15.0,15,0.00,,,0.00,meteohub,2013-01-22 11:44:00,
2013-01-22 06:45:00,2.7,-34.4,30.20,WSW,248,9.0,15.0,15,0.00,,,0.00,meteohub,2013-01-22 11:45:00,
2013-01-22 06:49:00,2.7,-34.4,30.20,West,270,9.0,15.0,15,0.00,,,0.00,meteohub,2013-01-22 11:49:00,
2013-01-22 06:50:00,2.7,-34.4,30.20,WSW,248,12.0,15.0,15,0.00,,,0.00,meteohub,2013-01-22 11:50:00,
2013-01-22 06:52:00,2.7,-34.4,30.21,West,270,6.0,15.0,15,0.00,,,0.00,meteohub,2013-01-22 11:52:00,
2013-01-22 06:54:00,2.7,-34.4,30.20,South,180,2.0,15.0,15,0.00,,,0.00,meteohub,2013-01-22 11:54:00,
2013-01-22 06:55:00,2.8,-34.4,30.21,NW,315,6.0,15.0,15,0.00,,,0.00,meteohub,2013-01-22 11:55:00,
2013-01-22 06:57:00,2.7,-33.3,30.21,WSW,248,3.0,12.0,16,0.00,,,0.00,meteohub,2013-01-22 11:57:00,
2013-01-22 06:58:00,2.7,-33.3,30.20,West,270,11.0,12.0,16,0.00,,,0.00,meteohub,2013-01-22 11:58:00,
2013-01-22 07:00:00,2.7,-33.3,30.21,NW,315,14.0,14.0,16,0.00,,,0.00,meteohub,2013-01-22 12:00:00,
2013-01-22 07:02:00,2.8,-33.2,30.21,WSW,248,5.0,12.0,16,0.00,,,0.00,meteohub,2013-01-22 12:02:00,
2013-01-22 07:03:00,2.7,-33.3,30.21,SSW,203,9.0,12.0,16,0.00,,,0.00,meteohub,2013-01-22 12:03:00,
2013-01-22 07:04:00,2.7,-33.3,30.20,WSW,248,7.0,12.0,16,0.00,,,0.00,meteohub,2013-01-22 12:04:00,
2013-01-22 07:05:00,2.7,-33.3,30.21,WSW,248,7.0,14.0,16,0.00,,,0.00,meteohub,2013-01-22 12:05:00,
2013-01-22 07:08:00,2.7,-33.3,30.21,WSW,248,11.0,14.0,16,0.00,,,0.00,meteohub,2013-01-22 12:08:00,
2013-01-22 07:09:00,2.7,-34.4,30.21,West,270,14.0,14.0,15,0.00,,,0.00,meteohub,2013-01-22 12:09:00,
2013-01-22 07:10:00,2.7,-34.4,30.21,NW,315,8.0,14.0,15,0.00,,,0.00,meteohub,2013-01-22 12:10:00,
2013-01-22 07:12:00,2.7,-33.3,30.21,WSW,248,8.0,14.0,16,0.00,,,0.00,meteohub,2013-01-22 12:12:00,
2013-01-22 07:13:00,2.8,-33.2,30.21,North,0,6.0,14.0,16,0.00,,,0.00,meteohub,2013-01-22 12:13:00,
2013-01-22 07:14:00,2.7,-33.3,30.21,WSW,248,4.0,14.0,16,0.00,,,0.00,meteohub,2013-01-22 12:14:00,
2013-01-22 07:15:00,2.7,-33.3,30.21,WSW,248,4.0,14.0,16,0.00,,,0.00,meteohub,2013-01-22 12:15:00,
2013-01-22 07:18:00,2.7,-33.3,30.21,WSW,248,4.0,14.0,16,0.00,,,0.00,meteohub,2013-01-22 12:18:00,
2013-01-22 07:19:00,2.7,-33.3,30.22,WSW,248,4.0,14.0,16,0.00,,,0.00,meteohub,2013-01-22 12:19:00,
2013-01-22 07:21:00,2.7,-33.3,30.22,WSW,248,4.0,14.0,16,0.00,,,0.00,meteohub,2013-01-22 12:21:00,
2013-01-22 07:23:00,2.7,-32.3,30.22,WSW,248,3.0,14.0,17,0.00,,,0.00,meteohub,2013-01-22 12:23:00,
2013-01-22 07:26:00,2.7,-32.3,30.22,NW,315,9.0,10.0,17,0.00,,,0.00,meteohub,2013-01-22 12:26:00,
2013-01-22 07:27:00,2.7,-32.3,30.21,West,270,7.0,10.0,17,0.00,,,0.00,meteohub,2013-01-22 12:27:00,
2013-01-22 07:29:00,2.7,-31.2,30.22,North,0,11.0,11.0,18,0.00,,,0.00,meteohub,2013-01-22 12:29:00,
2013-01-22 07:31:00,2.7,-31.2,30.22,WSW,248,8.0,9.0,18,0.00,,,0.00,meteohub,2013-01-22 12:31:00,
2013-01-22 07:32:00,2.7,-32.3,30.22,WNW,293,9.0,9.0,17,0.00,,,0.00,meteohub,2013-01-22 12:32:00,
2013-01-22 07:35:00,2.7,-31.2,30.22,WSW,248,6.0,9.0,18,0.00,,,0.00,meteohub,2013-01-22 12:35:00,
2013-01-22 07:37:00,2.7,-30.3,30.22,WSW,248,8.0,11.0,19,0.00,,,0.00,meteohub,2013-01-22 12:37:00,
2013-01-22 07:40:00,2.7,-30.3,30.22,South,180,10.0,11.0,19,0.00,,,0.00,meteohub,2013-01-22 12:40:00,
2013-01-22 07:41:00,2.7,-30.3,30.21,NW,315,15.0,15.0,19,0.00,,,0.00,meteohub,2013-01-22 12:41:00,
2013-01-22 07:42:00,2.7,-29.4,30.21,South,180,8.0,14.0,20,0.00,,,0.00,meteohub,2013-01-22 12:42:00,
2013-01-22 07:43:00,2.7,-29.4,30.22,WSW,248,2.0,14.0,20,0.00,,,0.00,meteohub,2013-01-22 12:43:00,
2013-01-22 07:45:00,2.7,-29.4,30.22,WSW,248,5.0,14.0,20,0.00,,,0.00,meteohub,2013-01-22 12:45:00,
2013-01-22 07:47:00,2.7,-29.4,30.22,West,270,9.0,15.0,20,0.00,,,0.00,meteohub,2013-01-22 12:47:00,
2013-01-22 07:48:00,2.7,-28.5,30.22,NNW,338,7.0,15.0,21,0.00,,,0.00,meteohub,2013-01-22 12:48:00,
2013-01-22 07:50:00,2.7,-28.5,30.22,West,270,6.0,15.0,21,0.00,,,0.00,meteohub,2013-01-22 12:50:00,
2013-01-22 07:53:00,2.7,-28.5,30.21,West,270,5.0,15.0,21,0.00,,,0.00,meteohub,2013-01-22 12:53:00,
2013-01-22 07:54:00,2.7,-28.5,30.22,West,270,8.0,15.0,21,0.00,,,0.00,meteohub,2013-01-22 12:54:00,
2013-01-22 07:57:00,2.7,-27.6,30.21,NW,315,7.0,15.0,22,0.00,,,0.00,meteohub,2013-01-22 12:57:00,
2013-01-22 07:58:00,2.7,-27.6,30.22,NW,315,4.0,15.0,22,0.00,,,0.00,meteohub,2013-01-22 12:58:00,
2013-01-22 07:59:00,2.7,-27.6,30.22,WSW,248,11.0,15.0,22,0.00,,,0.00,meteohub,2013-01-22 12:59:00,
2013-01-22 08:00:00,2.7,-27.6,30.22,West,270,9.0,15.0,22,0.00,,,0.00,meteohub,2013-01-22 13:00:00,
2013-01-22 08:02:00,2.7,-26.7,30.22,West,270,8.0,10.0,23,0.00,,,0.00,meteohub,2013-01-22 13:02:00,
2013-01-22 08:04:00,2.7,-26.0,30.22,WSW,248,10.0,10.0,24,0.00,,,0.00,meteohub,2013-01-22 13:04:00,
2013-01-22 08:05:00,2.7,-26.0,30.22,North,0,8.0,10.0,24,0.00,,,0.00,meteohub,2013-01-22 13:05:00,
2013-01-22 08:06:00,2.7,-26.0,30.22,NW,315,4.0,11.0,24,0.00,,,0.00,meteohub,2013-01-22 13:06:00,
2013-01-22 08:07:00,2.7,-26.0,30.22,WSW,248,8.0,11.0,24,0.00,,,0.00,meteohub,2013-01-22 13:07:00,
2013-01-22 08:09:00,2.7,-25.2,30.22,WSW,248,8.0,11.0,25,0.00,,,0.00,meteohub,2013-01-22 13:09:00,
2013-01-22 08:10:00,2.7,-25.2,30.22,WSW,248,3.0,11.0,25,0.00,,,0.00,meteohub,2013-01-22 13:10:00,
2013-01-22 08:11:00,2.7,-25.2,30.22,WSW,248,6.0,11.0,25,0.00,,,0.00,meteohub,2013-01-22 13:11:00,
2013-01-22 08:13:00,2.7,-25.2,30.22,WSW,248,14.0,14.0,25,0.00,,,0.00,meteohub,2013-01-22 13:13:00,
2013-01-22 08:14:00,2.7,-25.2,30.22,WSW,248,8.0,11.0,25,0.00,,,0.00,meteohub,2013-01-22 13:14:00,
2013-01-22 08:15:00,2.7,-25.2,30.22,WSW,248,8.0,14.0,25,0.00,,,0.00,meteohub,2013-01-22 13:15:00,
2013-01-22 08:17:00,2.7,-26.0,30.23,WSW,248,2.0,14.0,24,0.00,,,0.00,meteohub,2013-01-22 13:17:00,
2013-01-22 08:19:00,2.7,-26.0,30.23,WSW,248,5.0,14.0,24,0.00,,,0.00,meteohub,2013-01-22 13:19:00,
2013-01-22 08:21:00,2.7,-26.0,30.23,WSW,248,4.0,14.0,24,0.00,,,0.00,meteohub,2013-01-22 13:21:00,
2013-01-22 08:32:00,3.0,-28.1,30.23,South,180,2.0,13.0,21,0.00,,,0.00,meteohub,2013-01-22 13:32:00,
2013-01-22 08:37:00,3.2,-28.8,30.23,West,270,7.0,13.0,20,0.00,,,0.00,meteohub,2013-01-22 13:37:00,
2013-01-22 08:38:00,3.2,-29.7,30.23,West,270,15.0,15.0,19,0.00,,,0.00,meteohub,2013-01-22 13:38:00,
2013-01-22 08:42:00,3.2,-29.7,30.23,WSW,248,7.0,15.0,19,0.00,,,0.00,meteohub,2013-01-22 13:42:00,
2013-01-22 08:43:00,3.2,-29.7,30.23,WSW,248,9.0,15.0,19,0.00,,,0.00,meteohub,2013-01-22 13:43:00,
2013-01-22 08:47:00,3.4,-30.6,30.24,WSW,248,4.0,15.0,18,0.00,,,0.00,meteohub,2013-01-22 13:47:00,
2013-01-22 08:48:00,3.6,-30.5,30.24,NW,315,8.0,15.0,18,0.00,,,0.00,meteohub,2013-01-22 13:48:00,
2013-01-22 08:53:00,3.6,-30.5,30.24,WSW,248,5.0,15.0,18,0.00,,,0.00,meteohub,2013-01-22 13:53:00,
2013-01-22 08:54:00,3.6,-30.5,30.24,North,0,7.0,15.0,18,0.00,,,0.00,meteohub,2013-01-22 13:54:00,
2013-01-22 08:58:00,3.6,-31.5,30.24,West,270,9.0,17.0,17,0.00,,,0.00,meteohub,2013-01-22 13:58:00,
2013-01-22 08:59:00,3.6,-32.6,30.25,WSW,248,9.0,17.0,16,0.00,,,0.00,meteohub,2013-01-22 13:59:00,
2013-01-22 09:00:00,3.6,-32.6,30.24,NW,315,13.0,17.0,16,0.00,,,0.00,meteohub,2013-01-22 14:00:00,
2013-01-22 09:03:00,3.6,-32.6,30.25,WNW,293,8.0,17.0,16,0.00,,,0.00,meteohub,2013-01-22 14:03:00,
2013-01-22 09:04:00,3.4,-32.8,30.24,West,270,15.0,17.0,16,0.00,,,0.00,meteohub,2013-01-22 14:04:00,
2013-01-22 09:05:00,3.4,-32.8,30.25,WSW,248,13.0,17.0,16,0.00,,,0.00,meteohub,2013-01-22 14:05:00,
2013-01-22 09:07:00,3.4,-33.9,30.25,NW,315,11.0,17.0,15,0.00,,,0.00,meteohub,2013-01-22 14:07:00,
2013-01-22 09:09:00,3.4,-33.9,30.25,NW,315,13.0,17.0,15,0.00,,,0.00,meteohub,2013-01-22 14:09:00,
2013-01-22 09:11:00,3.4,-33.9,30.25,South,180,9.0,15.0,15,0.00,,,0.00,meteohub,2013-01-22 14:11:00,
2013-01-22 09:12:00,3.2,-34.1,30.25,NW,315,8.0,15.0,15,0.00,,,0.00,meteohub,2013-01-22 14:12:00,
2013-01-22 09:15:00,3.4,-33.9,30.25,WSW,248,11.0,15.0,15,0.00,,,0.00,meteohub,2013-01-22 14:15:00,
2013-01-22 09:17:00,3.4,-33.9,30.25,West,270,6.0,15.0,15,0.00,,,0.00,meteohub,2013-01-22 14:17:00,
2013-01-22 09:19:00,3.4,-33.9,30.25,NW,315,8.0,15.0,15,0.00,,,0.00,meteohub,2013-01-22 14:19:00,
2013-01-22 09:20:00,3.4,-33.9,30.25,NW,315,19.0,19.0,15,0.00,,,0.00,meteohub,2013-01-22 14:20:00,
2013-01-22 09:22:00,3.4,-33.9,30.25,WSW,248,5.0,14.0,15,0.00,,,0.00,meteohub,2013-01-22 14:22:00,
2013-01-22 09:23:00,3.4,-33.9,30.25,WSW,248,5.0,14.0,15,0.00,,,0.00,meteohub,2013-01-22 14:23:00,
2013-01-22 09:24:00,3.4,-33.9,30.25,NW,315,7.0,14.0,15,0.00,,,0.00,meteohub,2013-01-22 14:24:00,
2013-01-22 09:25:00,3.4,-33.9,30.25,NW,315,7.0,19.0,15,0.00,,,0.00,meteohub,2013-01-22 14:25:00,
2013-01-22 09:27:00,3.6,-33.7,30.25,West,270,4.0,19.0,15,0.00,,,0.00,meteohub,2013-01-22 14:27:00,
2013-01-22 09:28:00,3.6,-33.7,30.26,West,270,7.0,19.0,15,0.00,,,0.00,meteohub,2013-01-22 14:28:00,
2013-01-22 09:29:00,3.6,-33.7,30.25,West,270,8.0,19.0,15,0.00,,,0.00,meteohub,2013-01-22 14:29:00,
2013-01-22 09:31:00,3.7,-33.5,30.26,WSW,248,6.0,19.0,15,0.00,,,0.00,meteohub,2013-01-22 14:31:00,
2013-01-22 09:33:00,3.7,-33.5,30.25,West,270,8.0,19.0,15,0.00,,,0.00,meteohub,2013-01-22 14:33:00,
2013-01-22 09:34:00,3.7,-33.5,30.26,WSW,248,5.0,19.0,15,0.00,,,0.00,meteohub,2013-01-22 14:34:00,
2013-01-22 09:35:00,3.9,-33.5,30.25,WSW,248,8.0,19.0,15,0.00,,,0.00,meteohub,2013-01-22 14:35:00,
2013-01-22 09:37:00,3.9,-33.5,30.26,West,270,9.0,19.0,15,0.00,,,0.00,meteohub,2013-01-22 14:37:00,
2013-01-22 09:38:00,3.9,-33.5,30.26,WSW,248,8.0,19.0,15,0.00,,,0.00,meteohub,2013-01-22 14:38:00,
2013-01-22 09:40:00,3.9,-33.5,30.26,West,270,12.0,19.0,15,0.00,,,0.00,meteohub,2013-01-22 14:40:00,
2013-01-22 09:41:00,3.9,-33.5,30.26,West,270,11.0,11.0,15,0.00,,,0.00,meteohub,2013-01-22 14:41:00,
2013-01-22 09:42:00,3.9,-33.5,30.26,WSW,248,9.0,9.0,15,0.00,,,0.00,meteohub,2013-01-22 14:42:00,
2013-01-22 09:44:00,3.9,-33.5,30.26,NW,315,5.0,9.0,15,0.00,,,0.00,meteohub,2013-01-22 14:44:00,
2013-01-22 09:45:00,3.9,-33.5,30.26,North,0,11.0,12.0,15,0.00,,,0.00,meteohub,2013-01-22 14:45:00,
2013-01-22 09:46:00,3.9,-33.5,30.27,North,0,11.0,12.0,15,0.00,,,0.00,meteohub,2013-01-22 14:46:00,
2013-01-22 09:47:00,3.9,-33.5,30.26,West,270,9.0,12.0,15,0.00,,,0.00,meteohub,2013-01-22 14:47:00,
2013-01-22 09:49:00,3.9,-33.5,30.26,WSW,248,6.0,12.0,15,0.00,,,0.00,meteohub,2013-01-22 14:49:00,
2013-01-22 09:50:00,3.9,-33.5,30.26,NE,45,15.0,15.0,15,0.00,,,0.00,meteohub,2013-01-22 14:50:00,
2013-01-22 09:52:00,3.9,-34.6,30.27,West,270,10.0,12.0,14,0.00,,,0.00,meteohub,2013-01-22 14:52:00,
2013-01-22 09:54:00,4.1,-34.6,30.27,NW,315,8.0,12.0,14,0.00,,,0.00,meteohub,2013-01-22 14:54:00,
2013-01-22 09:57:00,4.1,-34.6,30.27,South,180,10.0,15.0,14,0.00,,,0.00,meteohub,2013-01-22 14:57:00,
2013-01-22 09:59:00,4.3,-35.7,30.27,West,270,8.0,15.0,13,0.00,,,0.00,meteohub,2013-01-22 14:59:00,
2013-01-22 10:02:00,4.3,-35.7,30.26,SE,135,17.0,17.0,13,0.00,,,0.00,meteohub,2013-01-22 15:02:00,
2013-01-22 10:03:00,4.3,-35.7,30.27,WSW,248,8.0,15.0,13,0.00,,,0.00,meteohub,2013-01-22 15:03:00,
2013-01-22 10:05:00,4.6,-35.5,30.27,West,270,4.0,15.0,13,0.00,,,0.00,meteohub,2013-01-22 15:05:00,
2013-01-22 10:07:00,5.0,-35.1,30.27,WSW,248,7.0,17.0,13,0.00,,,0.00,meteohub,2013-01-22 15:07:00,
2013-01-22 10:08:00,5.0,-35.1,30.27,WSW,248,9.0,17.0,13,0.00,,,0.00,meteohub,2013-01-22 15:08:00,
2013-01-22 10:10:00,5.2,-36.4,30.27,SE,135,10.0,17.0,12,0.00,,,0.00,meteohub,2013-01-22 15:10:00,
2013-01-22 10:12:00,5.2,-37.8,30.26,WNW,293,4.0,17.0,11,0.00,,,0.00,meteohub,2013-01-22 15:12:00,
2013-01-22 10:13:00,5.4,-36.2,30.27,South,180,6.0,17.0,12,0.00,,,0.00,meteohub,2013-01-22 15:13:00,
2013-01-22 10:14:00,5.4,-36.2,30.27,South,180,6.0,17.0,12,0.00,,,0.00,meteohub,2013-01-22 15:14:00,
2013-01-22 10:15:00,5.4,-37.8,30.26,WSW,248,3.0,17.0,11,0.00,,,0.00,meteohub,2013-01-22 15:15:00,
2013-01-22 10:17:00,5.5,-37.7,30.27,NW,315,4.0,17.0,11,0.00,,,0.00,meteohub,2013-01-22 15:17:00,
2013-01-22 10:19:00,5.5,-37.7,30.27,NW,315,4.0,17.0,11,0.00,,,0.00,meteohub,2013-01-22 15:19:00,
2013-01-22 10:20:00,5.5,-37.7,30.27,WSW,248,5.0,17.0,11,0.00,,,0.00,meteohub,2013-01-22 15:20:00,
2013-01-22 10:21:00,5.5,-37.7,30.27,NW,315,3.0,14.0,11,0.00,,,0.00,meteohub,2013-01-22 15:21:00,
2013-01-22 10:25:00,5.4,-39.5,30.27,North,0,3.0,14.0,10,0.00,,,0.00,meteohub,2013-01-22 15:25:00,
2013-01-22 10:27:00,5.5,-37.7,30.27,WSW,248,4.0,12.0,11,0.00,,,0.00,meteohub,2013-01-22 15:27:00,
2013-01-22 10:30:00,5.5,-39.3,30.27,WSW,248,4.0,12.0,10,0.00,,,0.00,meteohub,2013-01-22 15:30:00,
2013-01-22 10:31:00,5.5,-39.3,30.27,WSW,248,4.0,12.0,10,0.00,,,0.00,meteohub,2013-01-22 15:31:00,
2013-01-22 10:32:00,5.4,-39.5,30.27,NW,315,4.0,12.0,10,0.00,,,0.00,meteohub,2013-01-22 15:32:00,
2013-01-22 10:33:00,5.4,-39.5,30.27,West,270,12.0,12.0,10,0.00,,,0.00,meteohub,2013-01-22 15:33:00,
2013-01-22 10:35:00,5.2,-39.6,30.27,WSW,248,9.0,12.0,10,0.00,,,0.00,meteohub,2013-01-22 15:35:00,
2013-01-22 10:36:00,5.2,-39.6,30.26,NE,45,10.0,12.0,10,0.00,,,0.00,meteohub,2013-01-22 15:36:00,
2013-01-22 10:38:00,5.2,5.2,30.27,SE,135,7.0,12.0,0,0.00,,,0.00,meteohub,2013-01-22 15:38:00,
2013-01-22 10:41:00,5.2,5.2,30.27,West,270,5.0,12.0,0,0.00,,,0.00,meteohub,2013-01-22 15:41:00,
2013-01-22 10:42:00,5.0,5.0,30.27,West,270,11.0,12.0,0,0.00,,,0.00,meteohub,2013-01-22 15:42:00,
2013-01-22 10:44:00,5.0,5.0,30.27,West,270,11.0,12.0,0,0.00,,,0.00,meteohub,2013-01-22 15:44:00,
2013-01-22 10:46:00,5.0,5.0,30.27,West,270,5.0,12.0,0,0.00,,,0.00,meteohub,2013-01-22 15:46:00,
2013-01-22 10:49:00,5.2,5.2,30.27,NW,315,15.0,15.0,0,0.00,,,0.00,meteohub,2013-01-22 15:49:00,
2013-01-22 10:50:00,5.2,5.2,30.27,West,270,8.0,12.0,0,0.00,,,0.00,meteohub,2013-01-22 15:50:00,
2013-01-22 10:51:00,5.2,5.2,30.27,South,180,12.0,15.0,0,0.00,,,0.00,meteohub,2013-01-22 15:51:00,
2013-01-22 10:52:00,5.0,5.0,30.27,West,270,9.0,15.0,0,0.00,,,0.00,meteohub,2013-01-22 15:52:00,
2013-01-22 10:55:00,5.2,5.2,30.27,North,0,7.0,15.0,0,0.00,,,0.00,meteohub,2013-01-22 15:55:00,
2013-01-22 10:56:00,5.2,5.2,30.27,WSW,248,2.0,15.0,0,0.00,,,0.00,meteohub,2013-01-22 15:56:00,
2013-01-22 10:57:00,5.4,5.4,30.27,WSW,248,8.0,15.0,0,0.00,,,0.00,meteohub,2013-01-22 15:57:00,
2013-01-22 11:00:00,5.9,5.9,30.27,NW,315,3.0,15.0,0,0.00,,,0.00,meteohub,2013-01-22 16:00:00,
2013-01-22 11:02:00,5.9,5.9,30.27,WSW,248,8.0,15.0,0,0.00,,,0.00,meteohub,2013-01-22 16:02:00,
2013-01-22 11:03:00,6.1,6.1,30.27,West,270,3.0,15.0,0,0.00,,,0.00,meteohub,2013-01-22 16:03:00,
2013-01-22 11:05:00,6.1,6.1,30.27,NW,315,10.0,13.0,0,0.00,,,0.00,meteohub,2013-01-22 16:05:00,
2013-01-22 11:07:00,6.1,6.1,30.27,NW,315,7.0,13.0,0,0.00,,,0.00,meteohub,2013-01-22 16:07:00,
2013-01-22 11:08:00,6.3,6.3,30.27,NW,315,7.0,13.0,0,0.00,,,0.00,meteohub,2013-01-22 16:08:00,
2013-01-22 11:10:00,6.4,6.4,30.27,West,270,9.0,13.0,0,0.00,,,0.00,meteohub,2013-01-22 16:10:00,
2013-01-22 11:12:00,6.4,6.4,30.27,NW,315,9.0,13.0,0,0.00,,,0.00,meteohub,2013-01-22 16:12:00,
2013-01-22 11:13:00,6.4,6.4,30.27,NW,315,9.0,13.0,0,0.00,,,0.00,meteohub,2013-01-22 16:13:00,
2013-01-22 11:15:00,6.4,6.4,30.27,NE,45,6.0,13.0,0,0.00,,,0.00,meteohub,2013-01-22 16:15:00,
2013-01-22 11:17:00,6.4,6.4,30.27,North,0,5.0,13.0,0,0.00,,,0.00,meteohub,2013-01-22 16:17:00,
2013-01-22 11:18:00,6.6,6.6,30.27,South,180,5.0,13.0,0,0.00,,,0.00,meteohub,2013-01-22 16:18:00,
2013-01-22 11:19:00,6.6,6.6,30.27,NW,315,8.0,13.0,0,0.00,,,0.00,meteohub,2013-01-22 16:19:00,
2013-01-22 11:23:00,6.8,6.8,30.27,West,270,11.0,11.0,0,0.00,,,0.00,meteohub,2013-01-22 16:23:00,
2013-01-22 11:24:00,6.8,6.8,30.27,West,270,4.0,11.0,0,0.00,,,0.00,meteohub,2013-01-22 16:24:00,
2013-01-22 11:26:00,6.6,6.6,30.27,NW,315,7.0,11.0,0,0.00,,,0.00,meteohub,2013-01-22 16:26:00,
2013-01-22 11:28:00,6.6,6.6,30.27,NW,315,6.0,11.0,0,0.00,,,0.00,meteohub,2013-01-22 16:28:00,
2013-01-22 11:29:00,6.6,6.6,30.27,WNW,293,9.0,11.0,0,0.00,,,0.00,meteohub,2013-01-22 16:29:00,
2013-01-22 11:32:00,6.8,6.8,30.27,NE,45,2.0,13.0,0,0.00,,,0.00,meteohub,2013-01-22 16:32:00,
2013-01-22 11:33:00,7.0,7.0,30.27,West,270,7.0,13.0,0,0.00,,,0.00,meteohub,2013-01-22 16:33:00,
2013-01-22 11:34:00,7.0,7.0,30.27,WSW,248,4.0,13.0,0,0.00,,,0.00,meteohub,2013-01-22 16:34:00,
2013-01-22 11:35:00,7.0,7.0,30.27,WSW,248,7.0,13.0,0,0.00,,,0.00,meteohub,2013-01-22 16:35:00,
2013-01-22 11:37:00,6.8,6.8,30.27,NW,315,3.0,13.0,0,0.00,,,0.00,meteohub,2013-01-22 16:37:00,
2013-01-22 11:39:00,6.8,6.8,30.27,WNW,293,8.0,13.0,0,0.00,,,0.00,meteohub,2013-01-22 16:39:00,
2013-01-22 11:41:00,6.8,6.8,30.27,West,270,2.0,12.0,0,0.00,,,0.00,meteohub,2013-01-22 16:41:00,
2013-01-22 11:43:00,6.8,6.8,30.26,SE,135,10.0,12.0,0,0.00,,,0.00,meteohub,2013-01-22 16:43:00,
2013-01-22 11:44:00,6.6,6.6,30.26,NW,315,7.0,12.0,0,0.00,,,0.00,meteohub,2013-01-22 16:44:00,
2013-01-22 11:45:00,6.8,6.8,30.26,NW,315,6.0,12.0,0,0.00,,,0.00,meteohub,2013-01-22 16:45:00,
2013-01-22 11:48:00,7.7,7.7,30.26,WNW,293,6.0,12.0,0,0.00,,,0.00,meteohub,2013-01-22 16:48:00,
2013-01-22 11:49:00,7.9,7.9,30.26,West,270,6.0,12.0,0,0.00,,,0.00,meteohub,2013-01-22 16:49:00,
2013-01-22 11:50:00,7.9,7.9,30.26,WSW,248,15.0,15.0,0,0.00,,,0.00,meteohub,2013-01-22 16:50:00,
2013-01-22 11:53:00,7.7,7.7,30.26,NW,315,5.0,11.0,0,0.00,,,0.00,meteohub,2013-01-22 16:53:00,
2013-01-22 11:54:00,7.7,7.7,30.26,West,270,4.0,11.0,0,0.00,,,0.00,meteohub,2013-01-22 16:54:00,
2013-01-22 11:56:00,7.9,7.9,30.26,North,0,4.0,15.0,0,0.00,,,0.00,meteohub,2013-01-22 16:56:00,
2013-01-22 11:57:00,7.9,7.9,30.26,NW,315,8.0,15.0,0,0.00,,,0.00,meteohub,2013-01-22 16:57:00,
2013-01-22 12:00:00,7.9,7.9,30.26,NW,315,8.0,15.0,0,0.00,,,0.00,meteohub,2013-01-22 17:00:00,
2013-01-22 12:01:00,8.2,8.2,30.25,East,90,7.0,15.0,0,0.00,,,0.00,meteohub,2013-01-22 17:01:00,
2013-01-22 12:02:00,8.2,8.2,30.25,WSW,248,4.0,15.0,0,0.00,,,0.00,meteohub,2013-01-22 17:02:00,
2013-01-22 12:04:00,8.4,8.4,30.26,NW,315,8.0,15.0,0,0.00,,,0.00,meteohub,2013-01-22 17:04:00,
2013-01-22 12:06:00,8.2,8.2,30.25,East,90,8.0,15.0,0,0.00,,,0.00,meteohub,2013-01-22 17:06:00,
2013-01-22 12:08:00,8.2,8.2,30.25,East,90,13.0,15.0,0,0.00,,,0.00,meteohub,2013-01-22 17:08:00,
2013-01-22 12:10:00,8.2,8.2,30.25,NW,315,8.0,15.0,0,0.00,,,0.00,meteohub,2013-01-22 17:10:00,
2013-01-22 12:12:00,8.4,8.4,30.25,West,270,14.0,15.0,0,0.00,,,0.00,meteohub,2013-01-22 17:12:00,
2013-01-22 12:13:00,8.4,8.4,30.25,West,270,11.0,15.0,0,0.00,,,0.00,meteohub,2013-01-22 17:13:00,
2013-01-22 12:14:00,8.2,8.2,30.25,West,270,15.0,15.0,0,0.00,,,0.00,meteohub,2013-01-22 17:14:00,
2013-01-22 12:15:00,8.1,8.1,30.25,West,270,17.0,17.0,0,0.00,,,0.00,meteohub,2013-01-22 17:15:00,
2013-01-22 12:17:00,8.1,8.1,30.25,NW,315,9.0,17.0,0,0.00,,,0.00,meteohub,2013-01-22 17:17:00,
2013-01-22 12:19:00,8.2,8.2,30.25,NW,315,5.0,17.0,0,0.00,,,0.00,meteohub,2013-01-22 17:19:00,
2013-01-22 12:20:00,8.2,8.2,30.25,NW,315,5.0,17.0,0,0.00,,,0.00,meteohub,2013-01-22 17:20:00,
2013-01-22 12:22:00,8.4,8.4,30.25,West,270,12.0,17.0,0,0.00,,,0.00,meteohub,2013-01-22 17:22:00,
2013-01-22 12:24:00,8.1,8.1,30.25,NW,315,4.0,17.0,0,0.00,,,0.00,meteohub,2013-01-22 17:24:00,
2013-01-22 12:25:00,7.9,7.9,30.25,NW,315,8.0,17.0,0,0.00,,,0.00,meteohub,2013-01-22 17:25:00,
2013-01-22 12:26:00,7.9,7.9,30.25,North,0,11.0,17.0,0,0.00,,,0.00,meteohub,2013-01-22 17:26:00,
2013-01-22 12:27:00,7.7,7.7,30.25,WSW,248,6.0,17.0,0,0.00,,,0.00,meteohub,2013-01-22 17:27:00,
2013-01-22 12:30:00,7.7,7.7,30.25,NW,315,4.0,17.0,0,0.00,,,0.00,meteohub,2013-01-22 17:30:00,
2013-01-22 12:32:00,7.9,7.9,30.25,NW,315,14.0,17.0,0,0.00,,,0.00,meteohub,2013-01-22 17:32:00,
2013-01-22 12:34:00,8.1,8.1,30.25,West,270,6.0,17.0,0,0.00,,,0.00,meteohub,2013-01-22 17:34:00,
2013-01-22 12:35:00,8.1,8.1,30.25,West,270,6.0,14.0,0,0.00,,,0.00,meteohub,2013-01-22 17:35:00,
2013-01-22 12:36:00,8.1,8.1,30.25,West,270,6.0,14.0,0,0.00,,,0.00,meteohub,2013-01-22 17:36:00,
2013-01-22 12:37:00,8.2,8.2,30.25,WSW,248,11.0,14.0,0,0.00,,,0.00,meteohub,2013-01-22 17:37:00,
2013-01-22 12:40:00,8.6,8.6,30.25,NW,315,4.0,14.0,0,0.00,,,0.00,meteohub,2013-01-22 17:40:00,
2013-01-22 12:42:00,9.3,9.3,30.25,West,270,12.0,14.0,0,0.00,,,0.00,meteohub,2013-01-22 17:42:00,
2013-01-22 12:43:00,9.5,9.5,30.25,NW,315,12.0,14.0,0,0.00,,,0.00,meteohub,2013-01-22 17:43:00,
2013-01-22 12:45:00,9.0,9.0,30.25,NW,315,21.0,21.0,0,0.00,,,0.00,meteohub,2013-01-22 17:45:00,
2013-01-22 12:48:00,8.1,8.1,30.24,NW,315,11.0,14.0,0,0.00,,,0.00,meteohub,2013-01-22 17:48:00,
2013-01-22 12:50:00,7.7,7.7,30.24,NW,315,6.0,14.0,0,0.00,,,0.00,meteohub,2013-01-22 17:50:00,
2013-01-22 12:51:00,7.7,7.7,30.24,WSW,248,13.0,21.0,0,0.00,,,0.00,meteohub,2013-01-22 17:51:00,
2013-01-22 12:53:00,7.5,7.5,30.23,WSW,248,11.0,21.0,0,0.00,,,0.00,meteohub,2013-01-22 17:53:00,
2013-01-22 12:57:00,7.5,7.5,30.24,West,270,11.0,21.0,0,0.00,,,0.00,meteohub,2013-01-22 17:57:00,
2013-01-22 12:58:00,7.7,7.7,30.24,NW,315,12.0,21.0,0,0.00,,,0.00,meteohub,2013-01-22 17:58:00,
2013-01-22 13:00:00,7.7,7.7,30.24,North,0,11.0,21.0,0,0.00,,,0.00,meteohub,2013-01-22 18:00:00,
2013-01-22 13:02:00,7.5,7.5,30.23,WSW,248,17.0,21.0,0,0.00,,,0.00,meteohub,2013-01-22 18:02:00,
2013-01-22 13:03:00,7.5,7.5,30.24,NW,315,7.0,21.0,0,0.00,,,0.00,meteohub,2013-01-22 18:03:00,
2013-01-22 13:05:00,7.5,7.5,30.24,South,180,7.0,21.0,0,0.00,,,0.00,meteohub,2013-01-22 18:05:00,
2013-01-22 13:06:00,7.5,7.5,30.24,West,270,8.0,17.0,0,0.00,,,0.00,meteohub,2013-01-22 18:06:00,
2013-01-22 13:08:00,7.7,7.7,30.24,West,270,8.0,17.0,0,0.00,,,0.00,meteohub,2013-01-22 18:08:00,
2013-01-22 13:11:00,7.7,7.7,30.24,NW,315,8.0,17.0,0,0.00,,,0.00,meteohub,2013-01-22 18:11:00,
2013-01-22 13:12:00,7.5,7.5,30.23,West,270,17.0,17.0,0,0.00,,,0.00,meteohub,2013-01-22 18:12:00,
2013-01-22 13:13:00,7.5,7.5,30.24,West,270,17.0,17.0,0,0.00,,,0.00,meteohub,2013-01-22 18:13:00,
2013-01-22 13:14:00,7.5,7.5,30.24,WSW,248,11.0,17.0,0,0.00,,,0.00,meteohub,2013-01-22 18:14:00,
2013-01-22 13:17:00,7.9,7.9,30.23,NW,315,12.0,17.0,0,0.00,,,0.00,meteohub,2013-01-22 18:17:00,
2013-01-22 13:19:00,7.9,7.9,30.23,North,0,8.0,17.0,0,0.00,,,0.00,meteohub,2013-01-22 18:19:00,
2013-01-22 13:22:00,7.9,7.9,30.23,WSW,248,13.0,20.0,0,0.00,,,0.00,meteohub,2013-01-22 18:22:00,
2013-01-22 13:25:00,7.7,7.7,30.23,West,270,11.0,20.0,0,0.00,,,0.00,meteohub,2013-01-22 18:25:00,
2013-01-22 13:28:00,7.2,7.2,30.23,NW,315,11.0,20.0,0,0.00,,,0.00,meteohub,2013-01-22 18:28:00,
2013-01-22 13:29:00,7.2,7.2,30.23,South,180,11.0,20.0,0,0.00,,,0.00,meteohub,2013-01-22 18:29:00,
2013-01-22 13:30:00,7.2,7.2,30.23,NW,315,6.0,20.0,0,0.00,,,0.00,meteohub,2013-01-22 18:30:00,
2013-01-22 13:33:00,8.1,8.1,30.23,SE,135,5.0,17.0,0,0.00,,,0.00,meteohub,2013-01-22 18:33:00,
2013-01-22 13:35:00,8.2,8.2,30.23,WSW,248,9.0,17.0,0,0.00,,,0.00,meteohub,2013-01-22 18:35:00,
2013-01-22 13:36:00,9.1,9.1,30.23,NW,315,12.0,17.0,0,0.00,,,0.00,meteohub,2013-01-22 18:36:00,
2013-01-22 13:39:00,10.2,10.2,30.23,NW,315,9.0,17.0,0,0.00,,,0.00,meteohub,2013-01-22 18:39:00,
2013-01-22 13:40:00,10.6,10.6,30.23,West,270,15.0,17.0,0,0.00,,,0.00,meteohub,2013-01-22 18:40:00,
2013-01-22 13:41:00,10.9,10.9,30.23,West,270,14.0,21.0,0,0.00,,,0.00,meteohub,2013-01-22 18:41:00,
2013-01-22 13:44:00,13.3,13.3,30.23,West,270,11.0,21.0,0,0.00,,,0.00,meteohub,2013-01-22 18:44:00,
2013-01-22 13:45:00,13.3,13.3,30.23,NE,45,17.0,21.0,0,0.00,,,0.00,meteohub,2013-01-22 18:45:00,
2013-01-22 13:47:00,13.1,13.1,30.23,WSW,248,20.0,21.0,0,0.00,,,0.00,meteohub,2013-01-22 18:47:00,
2013-01-22 13:50:00,12.7,12.7,30.23,West,270,8.0,21.0,0,0.00,,,0.00,meteohub,2013-01-22 18:50:00,
2013-01-22 13:52:00,13.5,13.5,30.23,North,0,6.0,21.0,0,0.00,,,0.00,meteohub,2013-01-22 18:52:00,
2013-01-22 13:53:00,13.6,13.6,30.23,North,0,5.0,21.0,0,0.00,,,0.00,meteohub,2013-01-22 18:53:00,
2013-01-22 13:55:00,13.5,13.5,30.23,South,180,9.0,20.0,0,0.00,,,0.00,meteohub,2013-01-22 18:55:00,
2013-01-22 13:56:00,13.5,13.5,30.23,South,180,9.0,20.0,0,0.00,,,0.00,meteohub,2013-01-22 18:56:00,
2013-01-22 13:57:00,12.7,12.7,30.23,North,0,6.0,20.0,0,0.00,,,0.00,meteohub,2013-01-22 18:57:00,
2013-01-22 13:58:00,11.7,11.7,30.23,West,270,13.0,20.0,0,0.00,,,0.00,meteohub,2013-01-22 18:58:00,
2013-01-22 14:01:00,10.6,10.6,30.23,West,270,5.0,20.0,0,0.00,,,0.00,meteohub,2013-01-22 19:01:00,
2013-01-22 14:02:00,10.0,10.0,30.23,West,270,2.0,20.0,0,0.00,,,0.00,meteohub,2013-01-22 19:02:00,
2013-01-22 14:04:00,9.3,9.3,30.23,NW,315,13.0,20.0,0,0.00,,,0.00,meteohub,2013-01-22 19:04:00,
2013-01-22 14:07:00,8.6,8.6,30.23,NW,315,4.0,15.0,0,0.00,,,0.00,meteohub,2013-01-22 19:07:00,
2013-01-22 14:08:00,8.4,8.4,30.23,WSW,248,11.0,15.0,0,0.00,,,0.00,meteohub,2013-01-22 19:08:00,
2013-01-22 14:09:00,8.4,8.4,30.24,NW,315,7.0,15.0,0,0.00,,,0.00,meteohub,2013-01-22 19:09:00,
2013-01-22 14:12:00,8.1,8.1,30.24,SE,135,4.0,13.0,0,0.00,,,0.00,meteohub,2013-01-22 19:12:00,
2013-01-22 14:13:00,7.9,7.9,30.24,NE,45,13.0,13.0,0,0.00,,,0.00,meteohub,2013-01-22 19:13:00,
2013-01-22 14:14:00,7.5,7.5,30.24,WNW,293,11.0,13.0,0,0.00,,,0.00,meteohub,2013-01-22 19:14:00,
2013-01-22 14:17:00,7.3,7.3,30.24,NW,315,8.0,14.0,0,0.00,,,0.00,meteohub,2013-01-22 19:17:00,
2013-01-22 14:18:00,7.3,7.3,30.24,NW,315,4.0,14.0,0,0.00,,,0.00,meteohub,2013-01-22 19:18:00,
2013-01-22 14:20:00,7.3,7.3,30.25,NW,315,6.0,14.0,0,0.00,,,0.00,meteohub,2013-01-22 19:20:00,
2013-01-22 14:22:00,7.3,7.3,30.24,North,0,11.0,14.0,0,0.00,,,0.00,meteohub,2013-01-22 19:22:00,
2013-01-22 14:23:00,7.3,7.3,30.24,North,0,9.0,14.0,0,0.00,,,0.00,meteohub,2013-01-22 19:23:00,
2013-01-22 14:24:00,7.2,7.2,30.25,NW,315,9.0,14.0,0,0.00,,,0.00,meteohub,2013-01-22 19:24:00,
2013-01-22 14:25:00,7.2,7.2,30.24,NW,315,8.0,14.0,0,0.00,,,0.00,meteohub,2013-01-22 19:25:00,
2013-01-22 14:29:00,7.3,7.3,30.25,North,0,6.0,14.0,0,0.00,,,0.00,meteohub,2013-01-22 19:29:00,
2013-01-22 14:30:00,7.3,7.3,30.24,NW,315,14.0,14.0,0,0.00,,,0.00,meteohub,2013-01-22 19:30:00,
2013-01-22 14:34:00,7.2,7.2,30.25,NW,315,10.0,11.0,0,0.00,,,0.00,meteohub,2013-01-22 19:34:00,
2013-01-22 14:35:00,7.2,7.2,30.25,NW,315,10.0,11.0,0,0.00,,,0.00,meteohub,2013-01-22 19:35:00,
2013-01-22 14:36:00,7.2,7.2,30.25,West,270,4.0,14.0,0,0.00,,,0.00,meteohub,2013-01-22 19:36:00,
2013-01-22 14:40:00,7.5,7.5,30.25,WSW,248,16.0,16.0,0,0.00,,,0.00,meteohub,2013-01-22 19:40:00,
2013-01-22 14:42:00,7.5,7.5,30.25,West,270,15.0,15.0,0,0.00,,,0.00,meteohub,2013-01-22 19:42:00,
2013-01-22 14:45:00,7.2,7.2,30.25,North,0,7.0,14.0,0,0.00,,,0.00,meteohub,2013-01-22 19:45:00,
2013-01-22 14:47:00,7.2,7.2,30.25,West,270,5.0,16.0,0,0.00,,,0.00,meteohub,2013-01-22 19:47:00,
2013-01-22 14:51:00,7.2,7.2,30.25,West,270,13.0,16.0,0,0.00,,,0.00,meteohub,2013-01-22 19:51:00,
2013-01-22 14:52:00,7.3,7.3,30.25,West,270,4.0,16.0,0,0.00,,,0.00,meteohub,2013-01-22 19:52:00,
2013-01-22 14:54:00,7.9,7.9,30.25,NW,315,9.0,16.0,0,0.00,,,0.00,meteohub,2013-01-22 19:54:00,
2013-01-22 14:57:00,8.6,8.6,30.25,West,270,7.0,16.0,0,0.00,,,0.00,meteohub,2013-01-22 19:57:00,
2013-01-22 14:58:00,8.6,8.6,30.26,West,270,6.0,16.0,0,0.00,,,0.00,meteohub,2013-01-22 19:58:00,
2013-01-22 14:59:00,8.4,8.4,30.25,North,0,7.0,16.0,0,0.00,,,0.00,meteohub,2013-01-22 19:59:00,
2013-01-22 15:02:00,8.1,8.1,30.25,NW,315,13.0,16.0,0,0.00,,,0.00,meteohub,2013-01-22 20:02:00,
2013-01-22 15:03:00,8.1,8.1,30.25,NW,315,15.0,16.0,0,0.00,,,0.00,meteohub,2013-01-22 20:03:00,
2013-01-22 15:04:00,8.1,8.1,30.25,North,0,14.0,16.0,0,0.00,,,0.00,meteohub,2013-01-22 20:04:00,
2013-01-22 15:05:00,8.2,8.2,30.25,WSW,248,10.0,16.0,0,0.00,,,0.00,meteohub,2013-01-22 20:05:00,
2013-01-22 15:07:00,8.1,8.1,30.25,West,270,10.0,16.0,0,0.00,,,0.00,meteohub,2013-01-22 20:07:00,
2013-01-22 15:08:00,8.1,8.1,30.25,West,270,6.0,16.0,0,0.00,,,0.00,meteohub,2013-01-22 20:08:00,
2013-01-22 15:09:00,7.9,7.9,30.25,NW,315,9.0,16.0,0,0.00,,,0.00,meteohub,2013-01-22 20:09:00,
2013-01-22 15:11:00,7.7,7.7,30.26,NW,315,10.0,16.0,0,0.00,,,0.00,meteohub,2013-01-22 20:11:00,
2013-01-22 15:13:00,7.5,7.5,30.25,WNW,293,10.0,16.0,0,0.00,,,0.00,meteohub,2013-01-22 20:13:00,
2013-01-22 15:14:00,7.5,7.5,30.25,WNW,293,10.0,16.0,0,0.00,,,0.00,meteohub,2013-01-22 20:14:00,
2013-01-22 15:15:00,7.5,7.5,30.25,NW,315,7.0,16.0,0,0.00,,,0.00,meteohub,2013-01-22 20:15:00,
2013-01-22 15:17:00,7.5,7.5,30.26,WSW,248,8.0,15.0,0,0.00,,,0.00,meteohub,2013-01-22 20:17:00,
2013-01-22 15:19:00,7.5,7.5,30.25,WSW,248,11.0,15.0,0,0.00,,,0.00,meteohub,2013-01-22 20:19:00,
2013-01-22 15:20:00,7.5,7.5,30.26,WSW,248,11.0,15.0,0,0.00,,,0.00,meteohub,2013-01-22 20:20:00,
2013-01-22 15:22:00,7.5,7.5,30.26,West,270,8.0,13.0,0,0.00,,,0.00,meteohub,2013-01-22 20:22:00,
2013-01-22 15:24:00,7.7,7.7,30.26,NW,315,4.0,13.0,0,0.00,,,0.00,meteohub,2013-01-22 20:24:00,
2013-01-22 15:25:00,7.9,7.9,30.26,NW,315,7.0,13.0,0,0.00,,,0.00,meteohub,2013-01-22 20:25:00,
2013-01-22 15:27:00,8.1,-37.3,30.26,NE,45,2.0,11.0,10,0.00,,,0.00,meteohub,2013-01-22 20:27:00,
2013-01-22 15:30:00,8.1,-37.3,30.26,WSW,248,11.0,11.0,10,0.00,,,0.00,meteohub,2013-01-22 20:30:00,
2013-01-22 15:33:00,7.5,-36.0,30.26,NW,315,4.0,13.0,11,0.00,,,0.00,meteohub,2013-01-22 20:33:00,
2013-01-22 15:36:00,7.3,-34.6,30.26,South,180,9.0,13.0,12,0.00,,,0.00,meteohub,2013-01-22 20:36:00,
2013-01-22 15:38:00,7.0,-31.0,30.26,West,270,8.0,13.0,15,0.00,,,0.00,meteohub,2013-01-22 20:38:00,
2013-01-22 15:39:00,7.0,-31.0,30.26,NW,315,8.0,13.0,15,0.00,,,0.00,meteohub,2013-01-22 20:39:00,
2013-01-22 15:41:00,7.2,-29.6,30.26,West,270,4.0,13.0,16,0.00,,,0.00,meteohub,2013-01-22 20:41:00,
2013-01-22 15:44:00,7.2,-28.5,30.26,WSW,248,5.0,13.0,17,0.00,,,0.00,meteohub,2013-01-22 20:44:00,
2013-01-22 15:46:00,7.2,-27.4,30.26,NW,315,12.0,12.0,18,0.00,,,0.00,meteohub,2013-01-22 20:46:00,
2013-01-22 15:47:00,6.8,-27.8,30.26,West,270,10.0,11.0,18,0.00,,,0.00,meteohub,2013-01-22 20:47:00,
2013-01-22 15:49:00,6.8,-27.8,30.26,West,270,5.0,11.0,18,0.00,,,0.00,meteohub,2013-01-22 20:49:00,
2013-01-22 15:50:00,6.6,-27.9,30.26,West,270,9.0,12.0,18,0.00,,,0.00,meteohub,2013-01-22 20:50:00,
2013-01-22 15:52:00,6.6,-27.9,30.26,West,270,6.0,12.0,18,0.00,,,0.00,meteohub,2013-01-22 20:52:00,
2013-01-22 15:53:00,6.4,-28.1,30.26,North,0,8.0,12.0,18,0.00,,,0.00,meteohub,2013-01-22 20:53:00,
2013-01-22 15:54:00,6.4,-28.1,30.26,West,270,11.0,12.0,18,0.00,,,0.00,meteohub,2013-01-22 20:54:00,
2013-01-22 15:55:00,6.4,-28.1,30.26,North,0,7.0,12.0,18,0.00,,,0.00,meteohub,2013-01-22 20:55:00,
2013-01-22 15:57:00,6.4,-27.0,30.26,North,0,4.0,12.0,19,0.00,,,0.00,meteohub,2013-01-22 20:57:00,
2013-01-22 15:59:00,6.4,-27.0,30.26,NW,315,5.0,12.0,19,0.00,,,0.00,meteohub,2013-01-22 20:59:00,
2013-01-22 16:00:00,6.4,-26.1,30.26,North,0,9.0,12.0,20,0.00,,,0.00,meteohub,2013-01-22 21:00:00,
2013-01-22 16:01:00,6.4,-26.1,30.27,NW,315,4.0,12.0,20,0.00,,,0.00,meteohub,2013-01-22 21:01:00,
2013-01-22 16:04:00,6.4,-27.0,30.27,NW,315,10.0,12.0,19,0.00,,,0.00,meteohub,2013-01-22 21:04:00,
2013-01-22 16:05:00,6.4,-27.0,30.26,South,180,4.0,12.0,19,0.00,,,0.00,meteohub,2013-01-22 21:05:00,
2013-01-22 16:06:00,6.4,-27.0,30.26,North,0,6.0,12.0,19,0.00,,,0.00,meteohub,2013-01-22 21:06:00,
2013-01-22 16:09:00,6.3,-27.2,30.27,WSW,248,4.0,12.0,19,0.00,,,0.00,meteohub,2013-01-22 21:09:00,
2013-01-22 16:11:00,6.3,-27.2,30.27,WSW,248,4.0,12.0,19,0.00,,,0.00,meteohub,2013-01-22 21:11:00,
2013-01-22 16:12:00,6.3,-26.3,30.27,WSW,248,4.0,12.0,20,0.00,,,0.00,meteohub,2013-01-22 21:12:00,
2013-01-22 16:14:00,6.3,-25.4,30.26,WSW,248,11.0,12.0,21,0.00,,,0.00,meteohub,2013-01-22 21:14:00,
2013-01-22 16:16:00,6.3,-25.4,30.27,WSW,248,11.0,12.0,21,0.00,,,0.00,meteohub,2013-01-22 21:16:00,
2013-01-22 16:17:00,6.1,-24.7,30.26,West,270,7.0,12.0,22,0.00,,,0.00,meteohub,2013-01-22 21:17:00,
2013-01-22 16:19:00,5.9,-24.0,30.27,West,270,3.0,12.0,23,0.00,,,0.00,meteohub,2013-01-22 21:19:00,
2013-01-22 16:20:00,5.9,-24.0,30.27,WSW,248,6.0,12.0,23,0.00,,,0.00,meteohub,2013-01-22 21:20:00,
2013-01-22 16:22:00,5.9,-24.0,30.27,NW,315,8.0,11.0,23,0.00,,,0.00,meteohub,2013-01-22 21:22:00,
2013-01-22 16:24:00,5.9,-23.1,30.27,SE,135,2.0,11.0,24,0.00,,,0.00,meteohub,2013-01-22 21:24:00,
2013-01-22 16:25:00,5.9,-23.1,30.27,SE,135,2.0,11.0,24,0.00,,,0.00,meteohub,2013-01-22 21:25:00,
2013-01-22 16:27:00,5.9,-22.4,30.27,West,270,10.0,11.0,25,0.00,,,0.00,meteohub,2013-01-22 21:27:00,
2013-01-22 16:29:00,5.9,-22.4,30.27,WSW,248,3.0,11.0,25,0.00,,,0.00,meteohub,2013-01-22 21:29:00,
2013-01-22 16:31:00,5.9,-22.4,30.27,WSW,248,3.0,11.0,25,0.00,,,0.00,meteohub,2013-01-22 21:31:00,
2013-01-22 16:32:00,5.9,-22.4,30.27,NW,315,5.0,11.0,25,0.00,,,0.00,meteohub,2013-01-22 21:32:00,
2013-01-22 16:35:00,5.7,-22.5,30.27,West,270,5.0,11.0,25,0.00,,,0.00,meteohub,2013-01-22 21:35:00,
2013-01-22 16:37:00,5.7,-22.5,30.27,West,270,4.0,11.0,25,0.00,,,0.00,meteohub,2013-01-22 21:37:00,
2013-01-22 16:38:00,5.7,-22.5,30.27,NE,45,4.0,11.0,25,0.00,,,0.00,meteohub,2013-01-22 21:38:00,
2013-01-22 16:41:00,5.7,-21.8,30.28,WSW,248,9.0,10.0,26,0.00,,,0.00,meteohub,2013-01-22 21:41:00,
2013-01-22 16:42:00,5.7,-21.8,30.27,NW,315,8.0,10.0,26,0.00,,,0.00,meteohub,2013-01-22 21:42:00,
2013-01-22 16:43:00,5.7,-21.8,30.27,NW,315,8.0,10.0,26,0.00,,,0.00,meteohub,2013-01-22 21:43:00,
2013-01-22 16:44:00,5.7,-21.8,30.27,NW,315,6.0,10.0,26,0.00,,,0.00,meteohub,2013-01-22 21:44:00,
2013-01-22 16:46:00,5.7,-21.8,30.28,West,270,4.0,14.0,26,0.00,,,0.00,meteohub,2013-01-22 21:46:00,
2013-01-22 16:47:00,5.7,-21.8,30.27,NW,315,5.0,14.0,26,0.00,,,0.00,meteohub,2013-01-22 21:47:00,
2013-01-22 16:48:00,5.5,-22.0,30.27,NW,315,11.0,14.0,26,0.00,,,0.00,meteohub,2013-01-22 21:48:00,
2013-01-22 16:49:00,5.5,-22.0,30.28,NW,315,8.0,14.0,26,0.00,,,0.00,meteohub,2013-01-22 21:49:00,
2013-01-22 16:51:00,5.4,-22.2,30.28,North,0,4.0,14.0,26,0.00,,,0.00,meteohub,2013-01-22 21:51:00,
2013-01-22 16:53:00,5.4,-21.5,30.27,WSW,248,8.0,14.0,27,0.00,,,0.00,meteohub,2013-01-22 21:53:00,
2013-01-22 16:54:00,5.4,-21.5,30.28,South,180,5.0,14.0,27,0.00,,,0.00,meteohub,2013-01-22 21:54:00,
2013-01-22 16:57:00,5.2,-21.5,30.28,NW,315,10.0,11.0,27,0.00,,,0.00,meteohub,2013-01-22 21:57:00,
2013-01-22 16:58:00,5.2,-21.5,30.28,WNW,293,11.0,11.0,27,0.00,,,0.00,meteohub,2013-01-22 21:58:00,
2013-01-22 16:59:00,5.2,-21.5,30.28,West,270,10.0,11.0,27,0.00,,,0.00,meteohub,2013-01-22 21:59:00,
2013-01-22 17:00:00,5.2,-21.5,30.28,SE,135,12.0,12.0,27,0.00,,,0.00,meteohub,2013-01-22 22:00:00,
2013-01-22 17:03:00,5.2,-21.5,30.28,West,270,3.0,12.0,27,0.00,,,0.00,meteohub,2013-01-22 22:03:00,
2013-01-22 17:04:00,5.2,-21.5,30.29,WSW,248,7.0,12.0,27,0.00,,,0.00,meteohub,2013-01-22 22:04:00,
2013-01-22 17:05:00,5.2,-21.5,30.29,NW,315,5.0,12.0,27,0.00,,,0.00,meteohub,2013-01-22 22:05:00,
2013-01-22 17:09:00,5.0,-21.6,30.29,NW,315,11.0,12.0,27,0.00,,,0.00,meteohub,2013-01-22 22:09:00,
2013-01-22 17:10:00,5.0,-21.6,30.29,NW,315,11.0,12.0,27,0.00,,,0.00,meteohub,2013-01-22 22:10:00,
2013-01-22 17:15:00,5.0,-21.6,30.29,NW,315,11.0,12.0,27,0.00,,,0.00,meteohub,2013-01-22 22:15:00,
2013-01-22 17:16:00,5.0,-21.6,30.29,West,270,13.0,13.0,27,0.00,,,0.00,meteohub,2013-01-22 22:16:00,
2013-01-22 17:20:00,4.8,-21.8,30.29,NW,315,3.0,12.0,27,0.00,,,0.00,meteohub,2013-01-22 22:20:00,
2013-01-22 17:22:00,4.8,-21.8,30.29,South,180,2.0,13.0,27,0.00,,,0.00,meteohub,2013-01-22 22:22:00,
2013-01-22 17:25:00,4.8,-22.5,30.29,NE,45,5.0,13.0,26,0.00,,,0.00,meteohub,2013-01-22 22:25:00,
2013-01-22 17:26:00,4.8,-22.5,30.29,NW,315,5.0,13.0,26,0.00,,,0.00,meteohub,2013-01-22 22:26:00,
2013-01-22 17:27:00,4.8,-22.5,30.29,West,270,7.0,13.0,26,0.00,,,0.00,meteohub,2013-01-22 22:27:00,
2013-01-22 17:30:00,4.8,-24.2,30.29,West,270,8.0,13.0,24,0.00,,,0.00,meteohub,2013-01-22 22:30:00,
2013-01-22 17:32:00,4.8,-24.2,30.29,WSW,248,6.0,13.0,24,0.00,,,0.00,meteohub,2013-01-22 22:32:00,
2013-01-22 17:33:00,4.8,-24.2,30.29,NW,315,8.0,13.0,24,0.00,,,0.00,meteohub,2013-01-22 22:33:00,
2013-01-22 17:35:00,4.8,-24.9,30.30,West,270,7.0,11.0,23,0.00,,,0.00,meteohub,2013-01-22 22:35:00,
2013-01-22 17:37:00,4.8,-25.8,30.30,West,270,4.0,11.0,22,0.00,,,0.00,meteohub,2013-01-22 22:37:00,
2013-01-22 17:38:00,4.8,-25.8,30.30,West,270,6.0,11.0,22,0.00,,,0.00,meteohub,2013-01-22 22:38:00,
2013-01-22 17:39:00,4.6,-25.8,30.30,NW,315,5.0,11.0,22,0.00,,,0.00,meteohub,2013-01-22 22:39:00,
2013-01-22 17:40:00,4.6,-25.8,30.30,NW,315,4.0,11.0,22,0.00,,,0.00,meteohub,2013-01-22 22:40:00,
2013-01-22 17:42:00,4.6,-25.8,30.29,WSW,248,4.0,11.0,22,0.00,,,0.00,meteohub,2013-01-22 22:42:00,
2013-01-22 17:43:00,4.6,-25.8,30.30,WNW,293,6.0,11.0,22,0.00,,,0.00,meteohub,2013-01-22 22:43:00,
2013-01-22 17:45:00,4.6,-25.8,30.30,WSW,248,10.0,11.0,22,0.00,,,0.00,meteohub,2013-01-22 22:45:00,
2013-01-22 17:46:00,4.6,-25.8,30.30,NW,315,4.0,8.0,22,0.00,,,0.00,meteohub,2013-01-22 22:46:00,
2013-01-22 17:48:00,4.6,-25.8,30.30,WSW,248,4.0,8.0,22,0.00,,,0.00,meteohub,2013-01-22 22:48:00,
2013-01-22 17:49:00,4.6,-25.8,30.30,South,180,4.0,8.0,22,0.00,,,0.00,meteohub,2013-01-22 22:49:00,
2013-01-22 17:51:00,4.6,-25.8,30.30,NW,315,4.0,10.0,22,0.00,,,0.00,meteohub,2013-01-22 22:51:00,
2013-01-22 17:52:00,4.6,-25.8,30.30,West,270,8.0,10.0,22,0.00,,,0.00,meteohub,2013-01-22 22:52:00,
2013-01-22 17:53:00,4.6,-25.8,30.30,NW,315,4.0,10.0,22,0.00,,,0.00,meteohub,2013-01-22 22:53:00,
2013-01-22 17:54:00,4.6,-25.8,30.30,NW,315,6.0,10.0,22,0.00,,,0.00,meteohub,2013-01-22 22:54:00,
2013-01-22 17:57:00,4.6,-25.8,30.30,NW,315,4.0,10.0,22,0.00,,,0.00,meteohub,2013-01-22 22:57:00,
2013-01-22 17:58:00,4.6,-25.8,30.30,NW,315,4.0,10.0,22,0.00,,,0.00,meteohub,2013-01-22 22:58:00,
2013-01-22 18:01:00,4.6,-25.8,30.31,West,270,2.0,10.0,22,0.00,,,0.00,meteohub,2013-01-22 23:01:00,
2013-01-22 18:03:00,4.6,-25.8,30.31,WSW,248,3.0,10.0,22,0.00,,,0.00,meteohub,2013-01-22 23:03:00,
2013-01-22 18:04:00,4.6,-25.8,30.31,WSW,248,3.0,10.0,22,0.00,,,0.00,meteohub,2013-01-22 23:04:00,
2013-01-22 18:06:00,4.6,-25.8,30.31,North,0,5.0,8.0,22,0.00,,,0.00,meteohub,2013-01-22 23:06:00,
2013-01-22 18:08:00,4.6,-25.1,30.30,WSW,248,7.0,8.0,23,0.00,,,0.00,meteohub,2013-01-22 23:08:00,
2013-01-22 18:09:00,4.6,-25.1,30.30,WSW,248,4.0,8.0,23,0.00,,,0.00,meteohub,2013-01-22 23:09:00,
2013-01-22 18:10:00,4.6,-25.1,30.30,WSW,248,8.0,8.0,23,0.00,,,0.00,meteohub,2013-01-22 23:10:00,
2013-01-22 18:12:00,4.6,-24.2,30.30,West,270,4.0,8.0,24,0.00,,,0.00,meteohub,2013-01-22 23:12:00,
2013-01-22 18:14:00,4.5,-24.3,30.30,West,270,8.0,8.0,24,0.00,,,0.00,meteohub,2013-01-22 23:14:00,
2013-01-22 18:15:00,4.5,-24.3,30.30,West,270,6.0,8.0,24,0.00,,,0.00,meteohub,2013-01-22 23:15:00,
2013-01-22 18:17:00,4.5,-23.6,30.30,West,270,8.0,8.0,25,0.00,,,0.00,meteohub,2013-01-22 23:17:00,
2013-01-22 18:19:00,4.5,-23.6,30.30,NW,315,2.0,8.0,25,0.00,,,0.00,meteohub,2013-01-22 23:19:00,
2013-01-22 18:20:00,4.3,-23.1,30.30,NW,315,2.0,8.0,26,0.00,,,0.00,meteohub,2013-01-22 23:20:00,
2013-01-22 18:21:00,4.3,-23.1,30.31,WSW,248,2.0,8.0,26,0.00,,,0.00,meteohub,2013-01-22 23:21:00,
2013-01-22 18:22:00,4.3,-23.1,30.30,West,270,2.0,8.0,26,0.00,,,0.00,meteohub,2013-01-22 23:22:00,
2013-01-22 18:25:00,4.3,-23.1,30.30,West,270,4.0,8.0,26,0.00,,,0.00,meteohub,2013-01-22 23:25:00,
2013-01-22 18:26:00,4.1,-23.3,30.31,West,270,4.0,8.0,26,0.00,,,0.00,meteohub,2013-01-22 23:26:00,
2013-01-22 18:27:00,4.1,-23.3,30.30,NW,315,2.0,8.0,26,0.00,,,0.00,meteohub,2013-01-22 23:27:00,
2013-01-22 18:28:00,4.1,-23.3,30.30,NW,315,5.0,8.0,26,0.00,,,0.00,meteohub,2013-01-22 23:28:00,
2013-01-22 18:30:00,4.1,-23.3,30.30,West,270,2.0,8.0,26,0.00,,,0.00,meteohub,2013-01-22 23:30:00,
2013-01-22 18:31:00,4.1,-23.3,30.31,NW,315,2.0,8.0,26,0.00,,,0.00,meteohub,2013-01-22 23:31:00,
2013-01-22 18:33:00,4.1,-23.3,30.30,NE,45,4.0,8.0,26,0.00,,,0.00,meteohub,2013-01-22 23:33:00,
2013-01-22 18:34:00,4.1,-23.3,30.30,NW,315,8.0,8.0,26,0.00,,,0.00,meteohub,2013-01-22 23:34:00,
2013-01-22 18:36:00,4.1,-23.3,30.30,NW,315,4.0,8.0,26,0.00,,,0.00,meteohub,2013-01-22 23:36:00,
2013-01-22 18:38:00,3.9,-23.3,30.30,NW,315,2.0,8.0,26,0.00,,,0.00,meteohub,2013-01-22 23:38:00,
2013-01-22 18:39:00,3.9,-23.3,30.30,NW,315,2.0,8.0,26,0.00,,,0.00,meteohub,2013-01-22 23:39:00,
2013-01-22 18:42:00,3.9,-23.3,30.30,North,0,4.0,8.0,26,0.00,,,0.00,meteohub,2013-01-22 23:42:00,
2013-01-22 18:44:00,3.9,-23.3,30.30,NW,315,3.0,8.0,26,0.00,,,0.00,meteohub,2013-01-22 23:44:00,
2013-01-22 18:45:00,3.9,-23.3,30.30,NW,315,4.0,8.0,26,0.00,,,0.00,meteohub,2013-01-22 23:45:00,
2013-01-22 18:48:00,3.7,-23.4,30.30,NW,315,2.0,8.0,26,0.00,,,0.00,meteohub,2013-01-22 23:48:00,
2013-01-22 18:49:00,3.9,-22.7,30.30,West,270,4.0,8.0,27,0.00,,,0.00,meteohub,2013-01-22 23:49:00,
2013-01-22 18:50:00,3.7,-22.7,30.30,WSW,248,2.0,8.0,27,0.00,,,0.00,meteohub,2013-01-22 23:50:00,
2013-01-22 18:51:00,3.7,-22.7,30.30,NW,315,2.0,8.0,27,0.00,,,0.00,meteohub,2013-01-22 23:51:00,
2013-01-22 18:53:00,3.7,-22.7,30.30,North,0,4.0,8.0,27,0.00,,,0.00,meteohub,2013-01-22 23:53:00,
2013-01-22 18:54:00,3.7,-22.7,30.30,NW,315,4.0,8.0,27,0.00,,,0.00,meteohub,2013-01-22 23:54:00,
2013-01-22 18:55:00,3.7,-22.7,30.31,NW,315,6.0,8.0,27,0.00,,,0.00,meteohub,2013-01-22 23:55:00,
2013-01-22 18:57:00,3.7,-22.7,30.30,West,270,3.0,8.0,27,0.00,,,0.00,meteohub,2013-01-22 23:57:00,
2013-01-22 18:59:00,3.7,-22.7,30.30,SE,135,4.0,8.0,27,0.00,,,0.00,meteohub,2013-01-22 23:59:00,
2013-01-22 19:00:00,3.7,-22.7,30.30,West,270,3.0,8.0,27,0.00,,,0.00,meteohub,2013-01-23 00:00:00,
2013-01-22 19:02:00,3.7,-22.7,30.30,West,270,4.0,8.0,27,0.00,,,0.00,meteohub,2013-01-23 00:02:00,
2013-01-22 19:04:00,3.7,-22.7,30.30,West,270,3.0,8.0,27,0.00,,,0.00,meteohub,2013-01-23 00:04:00,
2013-01-22 19:05:00,3.7,-22.7,30.31,West,270,3.0,8.0,27,0.00,,,0.00,meteohub,2013-01-23 00:05:00,
2013-01-22 19:07:00,3.6,-22.9,30.31,NE,45,4.0,8.0,27,0.00,,,0.00,meteohub,2013-01-23 00:07:00,
2013-01-22 19:10:00,3.6,-22.2,30.31,NW,315,1.0,8.0,28,0.00,,,0.00,meteohub,2013-01-23 00:10:00,
2013-01-22 19:12:00,3.6,-22.2,30.31,West,270,4.0,8.0,28,0.00,,,0.00,meteohub,2013-01-23 00:12:00,
2013-01-22 19:13:00,3.4,-22.4,30.31,NW,315,4.0,8.0,28,0.00,,,0.00,meteohub,2013-01-23 00:13:00,
2013-01-22 19:14:00,3.6,-22.2,30.31,West,270,3.0,8.0,28,0.00,,,0.00,meteohub,2013-01-23 00:14:00,
2013-01-22 19:15:00,3.4,-22.4,30.31,NW,315,3.0,8.0,28,0.00,,,0.00,meteohub,2013-01-23 00:15:00,
2013-01-22 19:17:00,3.4,-22.4,30.31,NW,315,3.0,4.0,28,0.00,,,0.00,meteohub,2013-01-23 00:17:00,
2013-01-22 19:18:00,3.4,-22.4,30.30,NW,315,3.0,4.0,28,0.00,,,0.00,meteohub,2013-01-23 00:18:00,
2013-01-22 19:20:00,3.6,-21.6,30.31,WSW,248,9.0,9.0,29,0.00,,,0.00,meteohub,2013-01-23 00:20:00,
2013-01-22 19:22:00,3.6,-21.6,30.31,West,270,6.0,6.0,29,0.00,,,0.00,meteohub,2013-01-23 00:22:00,
2013-01-22 19:24:00,3.6,-21.6,30.31,North,0,2.0,4.0,29,0.00,,,0.00,meteohub,2013-01-23 00:24:00,
2013-01-22 19:25:00,3.6,-21.6,30.32,West,270,2.0,9.0,29,0.00,,,0.00,meteohub,2013-01-23 00:25:00,
2013-01-22 19:27:00,3.4,-21.8,30.32,NW,315,4.0,9.0,29,0.00,,,0.00,meteohub,2013-01-23 00:27:00,
2013-01-22 19:28:00,3.4,-21.8,30.32,NW,315,4.0,9.0,29,0.00,,,0.00,meteohub,2013-01-23 00:28:00,
2013-01-22 19:29:00,3.4,-21.8,30.32,WSW,248,3.0,9.0,29,0.00,,,0.00,meteohub,2013-01-23 00:29:00,
2013-01-22 19:31:00,3.4,-21.8,30.32,West,270,3.0,9.0,29,0.00,,,0.00,meteohub,2013-01-23 00:31:00,
2013-01-22 19:32:00,3.4,-21.8,30.32,West,270,3.0,9.0,29,0.00,,,0.00,meteohub,2013-01-23 00:32:00,
2013-01-22 19:34:00,3.4,-21.8,30.32,West,270,3.0,9.0,29,0.00,,,0.00,meteohub,2013-01-23 00:34:00,
2013-01-22 19:37:00,3.4,-21.8,30.31,West,270,3.0,9.0,29,0.00,,,0.00,meteohub,2013-01-23 00:37:00,
2013-01-22 19:38:00,3.4,-21.8,30.32,West,270,3.0,9.0,29,0.00,,,0.00,meteohub,2013-01-23 00:38:00,
2013-01-22 19:39:00,3.2,-21.3,30.32,West,270,4.0,9.0,30,0.00,,,0.00,meteohub,2013-01-23 00:39:00,
2013-01-22 19:41:00,3.2,-21.3,30.32,South,180,4.0,4.0,30,0.00,,,0.00,meteohub,2013-01-23 00:41:00,
2013-01-22 19:42:00,3.2,-20.6,30.32,WSW,248,3.0,4.0,31,0.00,,,0.00,meteohub,2013-01-23 00:42:00,
2013-01-22 19:43:00,3.2,-20.6,30.32,West,270,5.0,5.0,31,0.00,,,0.00,meteohub,2013-01-23 00:43:00,
2013-01-22 19:45:00,3.2,-21.3,30.32,West,270,2.0,5.0,30,0.00,,,0.00,meteohub,2013-01-23 00:45:00,
2013-01-22 19:47:00,3.2,-20.6,30.32,WSW,248,3.0,5.0,31,0.00,,,0.00,meteohub,2013-01-23 00:47:00,
2013-01-22 19:48:00,3.2,-20.6,30.32,West,270,2.0,5.0,31,0.00,,,0.00,meteohub,2013-01-23 00:48:00,
2013-01-22 19:50:00,3.2,-20.6,30.32,West,270,4.0,5.0,31,0.00,,,0.00,meteohub,2013-01-23 00:50:00,
2013-01-22 19:52:00,3.2,-20.6,30.32,NW,315,2.0,8.0,31,0.00,,,0.00,meteohub,2013-01-23 00:52:00,
2013-01-22 19:53:00,3.2,-20.6,30.32,NW,315,6.0,8.0,31,0.00,,,0.00,meteohub,2013-01-23 00:53:00,
2013-01-22 19:56:00,3.2,-20.6,30.32,NW,315,2.0,8.0,31,0.00,,,0.00,meteohub,2013-01-23 00:56:00,
2013-01-22 19:57:00,3.2,-20.6,30.32,NW,315,2.0,8.0,31,0.00,,,0.00,meteohub,2013-01-23 00:57:00,
2013-01-22 19:58:00,3.2,-20.6,30.32,North,0,4.0,8.0,31,0.00,,,0.00,meteohub,2013-01-23 00:58:00,
2013-01-22 20:00:00,3.2,-20.6,30.32,NW,315,2.0,8.0,31,0.00,,,0.00,meteohub,2013-01-23 01:00:00,
2013-01-22 20:01:00,3.2,-20.6,30.32,NW,315,2.0,8.0,31,0.00,,,0.00,meteohub,2013-01-23 01:01:00,
2013-01-22 20:02:00,3.2,-20.6,30.32,NW,315,2.0,8.0,31,0.00,,,0.00,meteohub,2013-01-23 01:02:00,
2013-01-22 20:03:00,3.2,-20.6,30.32,NW,315,2.0,8.0,31,0.00,,,0.00,meteohub,2013-01-23 01:03:00,
2013-01-22 20:06:00,3.2,-20.6,30.32,NW,315,2.0,6.0,31,0.00,,,0.00,meteohub,2013-01-23 01:06:00,
2013-01-22 20:07:00,3.2,-20.0,30.32,NW,315,2.0,6.0,32,0.00,,,0.00,meteohub,2013-01-23 01:07:00,
2013-01-22 20:08:00,3.2,-20.0,30.32,NW,315,4.0,6.0,32,0.00,,,0.00,meteohub,2013-01-23 01:08:00,
2013-01-22 20:09:00,3.2,-20.0,30.32,West,270,6.0,6.0,32,0.00,,,0.00,meteohub,2013-01-23 01:09:00,
2013-01-22 20:11:00,3.2,-20.0,30.32,NW,315,2.0,4.0,32,0.00,,,0.00,meteohub,2013-01-23 01:11:00,
2013-01-22 20:13:00,3.0,-20.2,30.32,West,270,5.0,5.0,32,0.00,,,0.00,meteohub,2013-01-23 01:13:00,
2013-01-22 20:14:00,3.0,-20.2,30.32,West,270,5.0,5.0,32,0.00,,,0.00,meteohub,2013-01-23 01:14:00,
2013-01-22 20:17:00,3.0,-20.2,30.32,NW,315,2.0,6.0,32,0.00,,,0.00,meteohub,2013-01-23 01:17:00,
2013-01-22 20:18:00,3.0,-20.2,30.32,NW,315,7.0,7.0,32,0.00,,,0.00,meteohub,2013-01-23 01:18:00,
2013-01-22 20:19:00,3.0,-20.2,30.32,NW,315,3.0,6.0,32,0.00,,,0.00,meteohub,2013-01-23 01:19:00,
2013-01-22 20:20:00,3.0,-20.2,30.32,NW,315,2.0,6.0,32,0.00,,,0.00,meteohub,2013-01-23 01:20:00,
2013-01-22 20:22:00,3.0,-20.2,30.32,West,270,2.0,7.0,32,0.00,,,0.00,meteohub,2013-01-23 01:22:00,
2013-01-22 20:23:00,3.0,-20.2,30.32,WSW,248,2.0,7.0,32,0.00,,,0.00,meteohub,2013-01-23 01:23:00,
2013-01-22 20:24:00,3.0,-20.2,30.32,West,270,4.0,7.0,32,0.00,,,0.00,meteohub,2013-01-23 01:24:00,
2013-01-22 20:26:00,3.0,-20.2,30.32,West,270,2.0,7.0,32,0.00,,,0.00,meteohub,2013-01-23 01:26:00,
2013-01-22 20:28:00,3.0,-20.2,30.32,West,270,4.0,7.0,32,0.00,,,0.00,meteohub,2013-01-23 01:28:00,
2013-01-22 20:29:00,3.0,-19.7,30.32,NW,315,3.0,7.0,33,0.00,,,0.00,meteohub,2013-01-23 01:29:00,
2013-01-22 20:33:00,3.0,-20.2,30.32,WSW,248,5.0,7.0,32,0.00,,,0.00,meteohub,2013-01-23 01:33:00,
2013-01-22 20:34:00,3.0,-19.7,30.32,South,180,3.0,7.0,33,0.00,,,0.00,meteohub,2013-01-23 01:34:00,
2013-01-22 20:35:00,3.0,-19.7,30.32,North,0,2.0,7.0,33,0.00,,,0.00,meteohub,2013-01-23 01:35:00,
2013-01-22 20:39:00,2.8,-19.8,30.32,West,270,3.0,4.0,33,0.00,,,0.00,meteohub,2013-01-23 01:39:00,
2013-01-22 20:40:00,2.8,-19.8,30.32,NW,315,4.0,4.0,33,0.00,,,0.00,meteohub,2013-01-23 01:40:00,
2013-01-22 20:43:00,2.8,-19.8,30.32,West,270,5.0,5.0,33,0.00,,,0.00,meteohub,2013-01-23 01:43:00,
2013-01-22 20:44:00,2.8,-19.8,30.32,North,0,2.0,5.0,33,0.00,,,0.00,meteohub,2013-01-23 01:44:00,
2013-01-22 20:45:00,2.8,-19.8,30.32,NW,315,4.0,5.0,33,0.00,,,0.00,meteohub,2013-01-23 01:45:00,
2013-01-22 20:48:00,2.8,-19.8,30.32,NW,315,5.0,5.0,33,0.00,,,0.00,meteohub,2013-01-23 01:48:00,
2013-01-22 20:49:00,2.8,-19.8,30.32,NW,315,4.0,5.0,33,0.00,,,0.00,meteohub,2013-01-23 01:49:00,
2013-01-22 20:50:00,2.8,-19.8,30.32,NW,315,2.0,5.0,33,0.00,,,0.00,meteohub,2013-01-23 01:50:00,
2013-01-22 20:53:00,2.8,-19.8,30.32,NW,315,2.0,5.0,33,0.00,,,0.00,meteohub,2013-01-23 01:53:00,
2013-01-22 20:54:00,2.8,-19.1,30.32,NW,315,3.0,5.0,34,0.00,,,0.00,meteohub,2013-01-23 01:54:00,
2013-01-22 20:55:00,2.8,-19.1,30.32,NW,315,4.0,5.0,34,0.00,,,0.00,meteohub,2013-01-23 01:55:00,
2013-01-22 20:58:00,2.8,-19.1,30.32,NW,315,4.0,5.0,34,0.00,,,0.00,meteohub,2013-01-23 01:58:00,
2013-01-22 20:59:00,2.8,-19.1,30.32,WSW,248,4.0,5.0,34,0.00,,,0.00,meteohub,2013-01-23 01:59:00,
2013-01-22 21:00:00,2.8,-19.1,30.32,WSW,248,4.0,5.0,34,0.00,,,0.00,meteohub,2013-01-23 02:00:00,
2013-01-22 21:03:00,2.8,-19.1,30.32,NW,315,4.0,6.0,34,0.00,,,0.00,meteohub,2013-01-23 02:03:00,
2013-01-22 21:04:00,2.8,-19.1,30.32,NW,315,4.0,6.0,34,0.00,,,0.00,meteohub,2013-01-23 02:04:00,
2013-01-22 21:05:00,2.8,-19.1,30.32,NW,315,4.0,6.0,34,0.00,,,0.00,meteohub,2013-01-23 02:05:00,
2013-01-22 21:06:00,2.8,-19.1,30.32,NW,315,4.0,6.0,34,0.00,,,0.00,meteohub,2013-01-23 02:06:00,
2013-01-22 21:08:00,2.7,-19.3,30.32,NW,315,4.0,6.0,34,0.00,,,0.00,meteohub,2013-01-23 02:08:00,
2013-01-22 21:09:00,2.7,-19.3,30.32,West,270,4.0,6.0,34,0.00,,,0.00,meteohub,2013-01-23 02:09:00,
2013-01-22 21:10:00,2.7,-19.3,30.32,NW,315,3.0,6.0,34,0.00,,,0.00,meteohub,2013-01-23 02:10:00,
2013-01-22 21:11:00,2.5,-19.5,30.32,West,270,8.0,8.0,34,0.00,,,0.00,meteohub,2013-01-23 02:11:00,
2013-01-22 21:13:00,2.5,-19.5,30.32,NW,315,4.0,6.0,34,0.00,,,0.00,meteohub,2013-01-23 02:13:00,
2013-01-22 21:15:00,2.5,-19.5,30.32,NW,315,5.0,6.0,34,0.00,,,0.00,meteohub,2013-01-23 02:15:00,
2013-01-22 21:17:00,2.5,-19.5,30.32,North,0,4.0,8.0,34,0.00,,,0.00,meteohub,2013-01-23 02:17:00,
2013-01-22 21:18:00,2.5,-19.5,30.32,NW,315,2.0,8.0,34,0.00,,,0.00,meteohub,2013-01-23 02:18:00,
2013-01-22 21:20:00,2.5,-19.5,30.32,NW,315,2.0,8.0,34,0.00,,,0.00,meteohub,2013-01-23 02:20:00,
2013-01-22 21:22:00,2.5,-19.5,30.33,NW,315,3.0,8.0,34,0.00,,,0.00,meteohub,2013-01-23 02:22:00,
2013-01-22 21:24:00,2.5,-19.5,30.32,West,270,3.0,8.0,34,0.00,,,0.00,meteohub,2013-01-23 02:24:00,
2013-01-22 21:27:00,2.5,-19.5,30.32,NW,315,4.0,8.0,34,0.00,,,0.00,meteohub,2013-01-23 02:27:00,
2013-01-22 21:28:00,2.5,-18.9,30.32,North,0,3.0,8.0,35,0.00,,,0.00,meteohub,2013-01-23 02:28:00,
2013-01-22 21:29:00,2.3,-19.1,30.32,West,270,3.0,8.0,35,0.00,,,0.00,meteohub,2013-01-23 02:29:00,
2013-01-22 21:30:00,2.5,-19.5,30.33,West,270,5.0,8.0,34,0.00,,,0.00,meteohub,2013-01-23 02:30:00,
2013-01-22 21:33:00,2.5,-18.9,30.32,NW,315,2.0,6.0,35,0.00,,,0.00,meteohub,2013-01-23 02:33:00,
2013-01-22 21:34:00,2.5,-18.9,30.32,NW,315,4.0,6.0,35,0.00,,,0.00,meteohub,2013-01-23 02:34:00,
2013-01-22 21:35:00,2.5,-18.9,30.32,NW,315,4.0,6.0,35,0.00,,,0.00,meteohub,2013-01-23 02:35:00,
2013-01-22 21:39:00,2.5,-18.9,30.32,NW,315,2.0,5.0,35,0.00,,,0.00,meteohub,2013-01-23 02:39:00,
2013-01-22 21:40:00,2.5,-18.9,30.32,NW,315,2.0,8.0,35,0.00,,,0.00,meteohub,2013-01-23 02:40:00,
2013-01-22 21:44:00,2.5,-18.9,30.32,North,0,2.0,8.0,35,0.00,,,0.00,meteohub,2013-01-23 02:44:00,
2013-01-22 21:45:00,2.5,-18.9,30.32,NW,315,5.0,8.0,35,0.00,,,0.00,meteohub,2013-01-23 02:45:00,
2013-01-22 21:46:00,2.5,-18.9,30.32,West,270,4.0,8.0,35,0.00,,,0.00,meteohub,2013-01-23 02:46:00,
2013-01-22 21:49:00,2.5,-18.4,30.32,NW,315,3.0,8.0,36,0.00,,,0.00,meteohub,2013-01-23 02:49:00,
2013-01-22 21:50:00,2.5,-18.4,30.32,NW,315,3.0,8.0,36,0.00,,,0.00,meteohub,2013-01-23 02:50:00,
2013-01-22 21:52:00,2.5,-18.9,30.32,NW,315,2.0,8.0,35,0.00,,,0.00,meteohub,2013-01-23 02:52:00,
2013-01-22 21:56:00,2.5,-18.4,30.32,WSW,248,2.0,6.0,36,0.00,,,0.00,meteohub,2013-01-23 02:56:00,
2013-01-22 21:57:00,2.5,-18.4,30.32,West,270,2.0,6.0,36,0.00,,,0.00,meteohub,2013-01-23 02:57:00,
2013-01-22 21:58:00,2.5,-18.4,30.32,WSW,248,4.0,6.0,36,0.00,,,0.00,meteohub,2013-01-23 02:58:00,
2013-01-22 22:01:00,2.5,-18.4,30.32,NW,315,8.0,8.0,36,0.00,,,0.00,meteohub,2013-01-23 03:01:00,
2013-01-22 22:02:00,2.5,-18.4,30.32,NW,315,2.0,6.0,36,0.00,,,0.00,meteohub,2013-01-23 03:02:00,
2013-01-22 22:04:00,2.5,-18.4,30.32,West,270,4.0,6.0,36,0.00,,,0.00,meteohub,2013-01-23 03:04:00,
2013-01-22 22:06:00,2.5,-18.4,30.32,West,270,2.0,8.0,36,0.00,,,0.00,meteohub,2013-01-23 03:06:00,
2013-01-22 22:08:00,2.5,-18.4,30.32,NW,315,2.0,8.0,36,0.00,,,0.00,meteohub,2013-01-23 03:08:00,
2013-01-22 22:09:00,2.5,-18.4,30.32,NW,315,3.0,8.0,36,0.00,,,0.00,meteohub,2013-01-23 03:09:00,
2013-01-22 22:11:00,2.5,-18.4,30.32,West,270,2.0,8.0,36,0.00,,,0.00,meteohub,2013-01-23 03:11:00,
2013-01-22 22:13:00,2.3,-18.6,30.32,NW,315,4.0,8.0,36,0.00,,,0.00,meteohub,2013-01-23 03:13:00,
2013-01-22 22:14:00,2.3,-18.6,30.32,NW,315,5.0,8.0,36,0.00,,,0.00,meteohub,2013-01-23 03:14:00,
2013-01-22 22:15:00,2.3,-18.6,30.32,West,270,4.0,8.0,36,0.00,,,0.00,meteohub,2013-01-23 03:15:00,
2013-01-22 22:17:00,2.3,-18.6,30.32,NW,315,8.0,8.0,36,0.00,,,0.00,meteohub,2013-01-23 03:17:00,
2013-01-22 22:19:00,2.3,-18.6,30.32,NW,315,2.0,8.0,36,0.00,,,0.00,meteohub,2013-01-23 03:19:00,
2013-01-22 22:20:00,2.3,-18.6,30.32,West,270,3.0,8.0,36,0.00,,,0.00,meteohub,2013-01-23 03:20:00,
2013-01-22 22:23:00,2.3,-18.6,30.32,West,270,3.0,8.0,36,0.00,,,0.00,meteohub,2013-01-23 03:23:00,
2013-01-22 22:24:00,2.3,-18.6,30.32,NW,315,1.0,8.0,36,0.00,,,0.00,meteohub,2013-01-23 03:24:00,
2013-01-22 22:25:00,2.1,-18.8,30.32,NW,315,7.0,8.0,36,0.00,,,0.00,meteohub,2013-01-23 03:25:00,
2013-01-22 22:26:00,2.1,-18.8,30.32,NW,315,7.0,8.0,36,0.00,,,0.00,meteohub,2013-01-23 03:26:00,
2013-01-22 22:28:00,2.3,-18.6,30.32,West,270,4.0,8.0,36,0.00,,,0.00,meteohub,2013-01-23 03:28:00,
2013-01-22 22:30:00,2.1,-18.8,30.32,NW,315,2.0,8.0,36,0.00,,,0.00,meteohub,2013-01-23 03:30:00,
2013-01-22 22:32:00,2.1,-18.8,30.32,West,270,1.0,8.0,36,0.00,,,0.00,meteohub,2013-01-23 03:32:00,
2013-01-22 22:35:00,2.1,-18.8,30.32,WSW,248,2.0,8.0,36,0.00,,,0.00,meteohub,2013-01-23 03:35:00,
2013-01-22 22:36:00,2.1,-18.8,30.32,WSW,248,2.0,8.0,36,0.00,,,0.00,meteohub,2013-01-23 03:36:00,
2013-01-22 22:38:00,2.1,-18.8,30.32,NW,315,2.0,8.0,36,0.00,,,0.00,meteohub,2013-01-23 03:38:00,
2013-01-22 22:40:00,2.1,-18.8,30.32,West,270,3.0,8.0,36,0.00,,,0.00,meteohub,2013-01-23 03:40:00,
2013-01-22 22:41:00,2.1,-18.8,30.32,West,270,4.0,8.0,36,0.00,,,0.00,meteohub,2013-01-23 03:41:00,
2013-01-22 22:44:00,2.1,-18.8,30.32,North,0,2.0,8.0,36,0.00,,,0.00,meteohub,2013-01-23 03:44:00,
2013-01-22 22:45:00,2.1,-18.8,30.32,West,270,2.0,4.0,36,0.00,,,0.00,meteohub,2013-01-23 03:45:00,
2013-01-22 22:46:00,2.1,-18.8,30.32,West,270,2.0,4.0,36,0.00,,,0.00,meteohub,2013-01-23 03:46:00,
2013-01-22 22:48:00,2.1,-18.8,30.32,West,270,2.0,4.0,36,0.00,,,0.00,meteohub,2013-01-23 03:48:00,
2013-01-22 22:49:00,2.1,-18.8,30.32,West,270,2.0,4.0,36,0.00,,,0.00,meteohub,2013-01-23 03:49:00,
2013-01-22 22:50:00,2.1,-18.8,30.32,West,270,2.0,4.0,36,0.00,,,0.00,meteohub,2013-01-23 03:50:00,
2013-01-22 22:52:00,2.1,-18.8,30.32,WSW,248,5.0,5.0,36,0.00,,,0.00,meteohub,2013-01-23 03:52:00,
2013-01-22 22:53:00,2.1,-18.8,30.32,West,270,2.0,4.0,36,0.00,,,0.00,meteohub,2013-01-23 03:53:00,
2013-01-22 22:54:00,2.1,-18.8,30.32,West,270,3.0,4.0,36,0.00,,,0.00,meteohub,2013-01-23 03:54:00,
2013-01-22 22:56:00,2.1,-18.8,30.32,West,270,3.0,5.0,36,0.00,,,0.00,meteohub,2013-01-23 03:56:00,
2013-01-22 22:58:00,2.1,-18.2,30.32,WSW,248,2.0,5.0,37,0.00,,,0.00,meteohub,2013-01-23 03:58:00,
2013-01-22 22:59:00,2.3,-18.6,30.32,NW,315,2.0,5.0,36,0.00,,,0.00,meteohub,2013-01-23 03:59:00,
2013-01-22 23:00:00,2.1,-18.8,30.32,West,270,3.0,5.0,36,0.00,,,0.00,meteohub,2013-01-23 04:00:00,
2013-01-22 23:01:00,2.1,-18.8,30.32,West,270,3.0,5.0,36,0.00,,,0.00,meteohub,2013-01-23 04:01:00,
2013-01-22 23:03:00,2.1,-18.8,30.32,West,270,2.0,5.0,36,0.00,,,0.00,meteohub,2013-01-23 04:03:00,
2013-01-22 23:04:00,2.1,-18.8,30.32,West,270,2.0,5.0,36,0.00,,,0.00,meteohub,2013-01-23 04:04:00,
2013-01-22 23:05:00,2.1,-18.8,30.32,West,270,2.0,5.0,36,0.00,,,0.00,meteohub,2013-01-23 04:05:00,
2013-01-22 23:06:00,2.1,-18.8,30.32,WSW,248,2.0,5.0,36,0.00,,,0.00,meteohub,2013-01-23 04:06:00,
2013-01-22 23:08:00,2.1,-18.8,30.32,West,270,2.0,5.0,36,0.00,,,0.00,meteohub,2013-01-23 04:08:00,
2013-01-22 23:10:00,2.1,-18.8,30.32,West,270,2.0,4.0,36,0.00,,,0.00,meteohub,2013-01-23 04:10:00,
2013-01-22 23:12:00,2.1,-18.8,30.31,West,270,3.0,4.0,36,0.00,,,0.00,meteohub,2013-01-23 04:12:00,
2013-01-22 23:13:00,2.3,-18.6,30.31,West,270,1.0,4.0,36,0.00,,,0.00,meteohub,2013-01-23 04:13:00,
2013-01-22 23:15:00,2.1,-18.8,30.32,NW,315,2.0,4.0,36,0.00,,,0.00,meteohub,2013-01-23 04:15:00,
2013-01-22 23:17:00,2.1,-18.8,30.32,NW,315,2.0,4.0,36,0.00,,,0.00,meteohub,2013-01-23 04:17:00,
2013-01-22 23:18:00,2.1,-18.8,30.32,NW,315,2.0,4.0,36,0.00,,,0.00,meteohub,2013-01-23 04:18:00,
2013-01-22 23:22:00,2.1,-18.8,30.32,NW,315,3.0,4.0,36,0.00,,,0.00,meteohub,2013-01-23 04:22:00,
2013-01-22 23:23:00,2.1,-18.8,30.32,West,270,3.0,4.0,36,0.00,,,0.00,meteohub,2013-01-23 04:23:00,
2013-01-22 23:27:00,2.1,-18.8,30.32,West,270,1.0,5.0,36,0.00,,,0.00,meteohub,2013-01-23 04:27:00,
2013-01-22 23:28:00,1.9,-18.9,30.32,West,270,4.0,5.0,36,0.00,,,0.00,meteohub,2013-01-23 04:28:00,
2013-01-22 23:29:00,1.9,-18.9,30.32,West,270,4.0,5.0,36,0.00,,,0.00,meteohub,2013-01-23 04:29:00,
2013-01-22 23:32:00,1.9,-18.9,30.32,South,180,2.0,5.0,36,0.00,,,0.00,meteohub,2013-01-23 04:32:00,
2013-01-22 23:33:00,1.9,-18.9,30.32,South,180,2.0,5.0,36,0.00,,,0.00,meteohub,2013-01-23 04:33:00,
2013-01-22 23:34:00,2.1,-18.8,30.31,West,270,1.0,5.0,36,0.00,,,0.00,meteohub,2013-01-23 04:34:00,
2013-01-22 23:35:00,1.9,-18.9,30.32,West,270,4.0,5.0,36,0.00,,,0.00,meteohub,2013-01-23 04:35:00,
2013-01-22 23:38:00,1.9,-18.9,30.32,West,270,2.0,5.0,36,0.00,,,0.00,meteohub,2013-01-23 04:38:00,
2013-01-22 23:39:00,1.9,-18.9,30.32,West,270,2.0,5.0,36,0.00,,,0.00,meteohub,2013-01-23 04:39:00,
2013-01-22 23:42:00,1.9,-18.9,30.32,WSW,248,4.0,4.0,36,0.00,,,0.00,meteohub,2013-01-23 04:42:00,
2013-01-22 23:44:00,2.1,-18.8,30.32,NW,315,5.0,5.0,36,0.00,,,0.00,meteohub,2013-01-23 04:44:00,
2013-01-22 23:45:00,2.1,-18.8,30.32,West,270,2.0,4.0,36,0.00,,,0.00,meteohub,2013-01-23 04:45:00,
2013-01-22 23:47:00,2.1,-18.8,30.31,NW,315,2.0,6.0,36,0.00,,,0.00,meteohub,2013-01-23 04:47:00,
2013-01-22 23:49:00,2.1,-18.8,30.31,NW,315,2.0,6.0,36,0.00,,,0.00,meteohub,2013-01-23 04:49:00,
2013-01-22 23:50:00,2.1,-18.8,30.31,NW,315,2.0,6.0,36,0.00,,,0.00,meteohub,2013-01-23 04:50:00,
2013-01-22 23:51:00,2.1,-18.8,30.31,North,0,4.0,6.0,36,0.00,,,0.00,meteohub,2013-01-23 04:51:00,
2013-01-22 23:52:00,2.1,-18.8,30.31,North,0,4.0,6.0,36,0.00,,,0.00,meteohub,2013-01-23 04:52:00,
2013-01-22 23:55:00,2.1,-18.8,30.31,NW,315,4.0,6.0,36,0.00,,,0.00,meteohub,2013-01-23 04:55:00,
2013-01-22 23:58:00,2.1,-18.8,30.30,North,0,4.0,8.0,36,0.00,,,0.00,meteohub,2013-01-23 04:58:00,